<- Previous Day | Today | Next Day ->

All Data for 12 November 2019

 

Time A - D Temp A - D Dew Point A - D Humidity A - D Pressure A - D Wind A - D Wind Dir Gust A - D Rain Rate A - D Rain Total
00:00 7.0 1.5 68 1007.4 12.1 SW 21.3 0.0 0.0
00:01 7.0 1.5 68 1007.2 12.1 SW 15.2 0.0 0.0
00:02 7.0 1.5 68 1007.2 12.1 SW 15.2 0.0 0.0
00:03 7.0 1.5 68 1007.2 12.1 SW 15.2 0.0 0.0
00:04 7.0 1.5 68 1007.2 12.1 SW 15.2 0.0 0.0
00:05 7.0 1.3 67 1007.2 8.3 S 15.2 0.0 0.0
00:06 7.0 1.3 67 1007.2 13.0 NW 13.0 0.0 0.0
00:07 6.9 1.2 67 1007.2 15.9 E 15.9 0.0 0.0
00:08 7.0 1.3 67 1007.3 14.5 W 15.9 0.0 0.0
00:09 6.9 1.2 67 1007.2 16.8 SW 16.8 0.0 0.0
00:10 6.9 1.2 67 1007.1 12.1 NW 16.8 0.0 0.0
00:12 6.9 1.0 66 1007.2 19.0 NW 19.0 0.0 0.0
00:13 6.9 1.2 67 1007.2 12.1 W 19.0 0.0 0.0
00:14 6.9 1.0 66 1007.4 10.7 NW 19.0 0.0 0.0
00:15 7.0 1.3 67 1007.3 14.5 NNW 19.0 0.0 0.0
00:16 7.0 1.1 66 1007.4 13.6 NW 19.0 0.0 0.0
00:17 7.0 1.1 66 1007.2 13.6 E 19.0 0.0 0.0
00:18 7.0 1.1 66 1007.4 15.9 NW 19.0 0.0 0.0
00:19 7.0 1.1 66 1007.4 14.5 NW 19.0 0.8 0.1
00:20 6.9 1.0 66 1007.6 15.9 W 19.0 1.5 0.1
00:21 6.9 1.0 66 1007.4 13.6 SW 19.0 1.5 0.1
00:22 6.8 1.1 67 1007.3 10.7 W 19.0 1.5 0.1
00:23 6.8 1.1 67 1007.2 10.7 N 15.9 1.5 0.1
00:24 6.7 1.0 67 1007.2 7.6 WNW 15.9 0.8 0.1
00:25 6.7 1.0 67 1007.2 11.4 W 15.9 0.0 0.1
00:27 6.6 0.9 67 1007.1 6.9 NW 15.9 0.0 0.1
00:28 6.5 0.8 67 1007.0 12.1 NW 15.9 0.0 0.1
00:29 6.5 0.8 67 1007.0 12.1 NW 15.9 0.0 0.1
00:30 6.5 0.8 67 1007.1 11.4 WNW 15.9 0.0 0.1
00:31 6.5 1.0 68 1007.0 6.9 WSW 12.1 0.0 0.1
00:32 6.5 1.0 68 1007.1 13.6 NW 13.6 0.0 0.1
00:33 6.5 1.0 68 1007.0 8.3 NW 13.6 0.0 0.1
00:34 6.4 0.9 68 1007.2 9.2 NW 13.6 0.0 0.1
00:35 6.5 1.0 68 1007.1 8.3 WSW 13.6 0.0 0.1
00:36 6.5 1.0 68 1006.8 12.1 W 13.6 0.8 0.2
00:37 6.5 1.0 68 1006.9 11.4 SW 13.6 0.8 0.2
00:38 6.4 1.1 69 1006.9 9.2 N 13.6 0.8 0.2
00:39 6.5 1.2 69 1007.1 9.2 NW 13.6 0.8 0.2
00:40 6.4 1.1 69 1007.0 7.6 N 13.6 0.8 0.2
00:42 6.4 1.1 69 1006.9 7.6 NW 12.1 0.0 0.2
00:43 6.4 1.1 69 1006.9 7.6 W 13.0 0.0 0.2
00:44 6.4 1.1 69 1006.9 7.6 W 13.0 0.0 0.2
00:45 6.4 1.1 69 1007.0 5.4 NE 13.0 0.0 0.2
00:46 6.4 1.3 70 1006.9 5.4 SW 13.0 0.0 0.2
00:47 6.4 1.3 70 1006.8 7.6 WNW 13.0 0.0 0.2
00:48 6.4 1.3 70 1007.1 7.6 SW 13.0 0.0 0.2
00:49 6.4 1.3 70 1007.2 9.2 SW 13.0 0.0 0.2
00:50 6.3 1.2 70 1007.1 6.0 W 13.0 0.0 0.2
00:51 6.3 1.2 70 1007.2 5.4 SW 13.0 0.0 0.2
00:52 6.3 1.2 70 1007.0 9.8 SW 13.0 0.0 0.2
00:53 6.3 1.2 70 1007.1 10.7 SW 10.7 0.0 0.2
00:54 6.3 1.2 70 1007.0 9.2 SW 10.7 0.0 0.2
00:55 6.3 1.2 70 1007.0 7.6 W 10.7 0.0 0.2
00:57 6.3 1.2 70 1007.1 6.0 SW 10.7 0.0 0.2
00:58 6.3 1.2 70 1007.1 8.3 SW 10.7 0.0 0.2
00:59 6.4 1.3 70 1007.1 9.8 SW 10.7 0.0 0.2
01:00 6.4 1.3 70 1007.1 9.8 SW 10.7 0.0 0.2
01:01 6.4 1.3 70 1006.9 7.6 W 10.7 0.0 0.2
01:02 6.4 1.3 70 1007.0 8.3 W 10.7 0.0 0.3
01:03 6.5 1.6 71 1006.8 9.8 NW 12.1 0.8 0.3
01:04 6.5 1.6 71 1006.8 9.8 NW 12.1 0.8 0.3
01:05 6.5 1.6 71 1007.1 13.0 NW 13.0 0.8 0.3
01:06 6.5 1.6 71 1006.9 12.1 NW 14.5 0.8 0.3
01:07 6.5 1.6 71 1007.1 11.4 SW 14.5 0.8 0.3
01:08 6.6 1.7 71 1007.1 13.6 SW 14.5 0.0 0.3
01:09 6.6 1.7 71 1007.0 12.1 SW 14.5 0.0 0.3
01:10 6.6 1.7 71 1007.0 12.1 SW 15.9 0.0 0.3
01:11 6.6 1.7 71 1007.0 16.8 SW 16.8 0.0 0.3
01:12 6.6 1.7 71 1006.9 12.1 SW 16.8 0.0 0.3
01:13 6.6 1.7 71 1007.1 13.0 SW 16.8 0.0 0.3
01:14 6.6 1.7 71 1006.8 14.5 SW 16.8 0.0 0.3
01:15 6.5 1.6 71 1006.9 12.1 SW 16.8 0.0 0.3
01:17 6.5 1.6 71 1007.0 8.3 WNW 16.8 0.0 0.3
01:18 6.5 1.6 71 1007.1 11.4 W 16.8 0.0 0.3
01:19 6.5 1.6 71 1007.0 13.6 SW 16.8 0.0 0.3
01:20 6.5 1.6 71 1007.0 12.1 SW 16.8 0.8 0.3
01:21 6.5 1.6 71 1007.1 14.5 SW 16.8 1.5 0.4
01:22 6.5 1.6 71 1006.9 13.6 SW 14.5 1.5 0.4
01:23 6.5 1.6 71 1006.7 10.7 S 14.5 1.5 0.4
01:24 6.5 1.6 71 1006.9 9.2 W 14.5 1.5 0.4
01:25 6.4 1.5 71 1006.8 9.8 NW 14.5 1.5 0.4
01:26 6.4 1.5 71 1006.8 9.8 SW 14.5 0.8 0.4
01:27 6.4 1.7 72 1006.9 13.0 SE 14.5 0.8 0.4
01:28 6.4 1.7 72 1006.8 13.0 SW 14.5 0.8 0.4
01:29 6.4 1.7 72 1006.8 12.1 W 14.5 0.8 0.4
01:31 6.4 1.7 72 1006.9 10.7 SW 13.6 0.0 0.4
01:32 6.4 1.7 72 1006.7 15.2 SW 15.2 0.0 0.4
01:33 6.4 1.7 72 1006.8 11.4 SW 15.2 0.0 0.4
01:34 6.4 1.7 72 1006.9 9.2 SW 15.2 0.0 0.4
01:35 6.5 1.8 72 1006.8 15.9 NW 15.9 0.0 0.4
01:36 6.4 1.7 72 1006.8 10.7 W 15.9 0.0 0.4
01:37 6.4 1.7 72 1006.8 14.5 SW 15.9 0.0 0.4
01:38 6.4 1.7 72 1006.8 13.6 WNW 15.9 0.0 0.4
01:39 6.4 1.7 72 1006.8 11.4 SW 15.9 0.0 0.4
01:40 6.4 1.7 72 1006.8 13.0 W 15.9 0.0 0.4
01:41 6.4 1.7 72 1006.7 12.1 WSW 15.9 0.0 0.4
01:42 6.4 1.7 72 1006.8 14.5 S 15.9 0.0 0.4
01:43 6.3 1.6 72 1006.8 8.3 SW 15.9 0.0 0.4
01:44 6.3 1.6 72 1006.7 12.1 NW 15.9 0.0 0.4
01:46 6.3 1.6 72 1006.7 15.2 SW 15.2 0.0 0.4
01:47 6.3 1.6 72 1006.7 14.5 SW 15.2 0.0 0.4
01:48 6.3 1.6 72 1006.7 14.5 SW 15.2 0.0 0.4
01:49 6.3 1.6 72 1006.7 8.3 SW 15.2 0.0 0.4
01:50 6.3 1.6 72 1006.8 12.1 NW 15.2 0.0 0.4
01:51 6.3 1.6 72 1006.7 8.3 SW 15.2 0.0 0.4
01:52 6.3 1.6 72 1006.7 13.6 SW 15.2 0.0 0.4
01:53 6.3 1.6 72 1006.7 13.6 WNW 15.2 0.0 0.4
01:54 6.3 1.6 72 1006.8 11.4 SW 15.2 0.0 0.4
01:55 6.4 1.7 72 1007.0 9.2 SW 15.2 0.0 0.4
01:56 6.3 1.6 72 1006.7 9.2 WNW 14.5 0.0 0.4
01:57 6.3 1.6 72 1006.7 6.9 W 14.5 0.0 0.4
01:58 6.4 1.7 72 1006.8 10.7 WSW 13.6 0.0 0.4
01:59 6.4 1.7 72 1006.7 13.6 NNW 13.6 0.0 0.4
02:01 6.4 1.7 72 1006.7 13.6 NNW 13.6 0.0 0.4
02:02 6.4 1.7 72 1006.7 13.6 NNW 13.6 0.0 0.4
02:03 6.4 1.7 72 1006.8 13.6 NNW 13.6 0.0 0.4
02:04 6.4 1.7 72 1006.8 13.6 NNW 13.6 0.0 0.4
02:05 6.4 1.5 71 1006.8 20.6 W 20.6 0.0 0.4
02:06 6.4 1.5 71 1007.0 10.7 NW 20.6 0.0 0.4
02:07 6.5 1.6 71 1006.8 10.7 SW 20.6 0.0 0.4
02:08 6.5 1.6 71 1006.7 8.3 NW 20.6 0.0 0.4
02:09 6.5 1.6 71 1006.8 12.1 W 20.6 0.0 0.4
02:10 6.5 1.6 71 1006.7 11.4 W 20.6 0.0 0.4
02:11 6.5 1.6 71 1006.7 9.8 S 20.6 0.0 0.4
02:12 6.5 1.6 71 1006.8 9.2 NW 20.6 0.0 0.4
02:14 6.4 1.5 71 1006.8 11.4 NW 20.6 0.0 0.4
02:15 6.4 1.5 71 1006.7 7.6 W 12.1 0.0 0.4
02:16 6.4 1.5 71 1006.7 5.4 W 12.1 0.0 0.4
02:17 6.4 1.5 71 1006.7 5.4 W 12.1 0.0 0.4
02:18 6.4 1.5 71 1006.6 4.5 W 12.1 0.0 0.4
02:19 6.4 1.5 71 1006.8 9.2 W 11.4 0.0 0.4
02:20 6.3 1.4 71 1006.7 10.7 SW 11.4 0.0 0.4
02:21 6.3 1.4 71 1006.8 7.6 W 11.4 0.0 0.4
02:22 6.3 1.4 71 1006.6 7.6 WSW 11.4 0.0 0.4
02:23 6.3 1.4 71 1006.7 8.3 W 11.4 0.0 0.4
02:24 6.2 1.3 71 1006.7 8.3 NW 11.4 0.0 0.4
02:25 6.3 1.4 71 1006.6 8.3 W 11.4 0.0 0.4
02:26 6.2 1.3 71 1006.6 10.7 NW 11.4 0.0 0.4
02:27 6.3 1.4 71 1006.5 8.3 SW 12.1 0.0 0.4
02:28 6.3 1.4 71 1006.7 5.4 SW 12.1 0.0 0.4
02:29 6.3 1.4 71 1006.7 5.4 W 12.1 0.0 0.4
02:30 6.2 1.3 71 1006.7 8.3 S 12.1 0.0 0.4
02:31 6.3 1.6 72 1006.6 10.7 SW 12.1 0.0 0.4
02:33 6.3 1.4 71 1006.6 14.5 S 14.5 0.0 0.4
02:34 6.3 1.4 71 1006.5 9.2 W 14.5 0.0 0.4
02:35 6.3 1.4 71 1006.8 9.2 SW 14.5 0.0 0.4
02:36 6.3 1.4 71 1006.8 9.2 SW 14.5 0.0 0.4
02:37 6.3 1.4 71 1006.7 9.8 W 14.5 0.0 0.4
02:38 6.4 1.5 71 1006.7 11.4 W 14.5 0.0 0.4
02:39 6.4 1.5 71 1006.7 9.8 NW 14.5 0.0 0.4
02:40 6.4 1.5 71 1006.5 9.2 WNW 14.5 0.0 0.4
02:41 6.4 1.5 71 1006.5 11.4 WNW 14.5 0.0 0.4
02:42 6.4 1.5 71 1006.6 10.7 NW 14.5 0.0 0.4
02:43 6.4 1.5 71 1006.5 10.7 N 14.5 0.0 0.4
02:44 6.4 1.5 71 1006.5 10.7 W 11.4 0.0 0.4
02:45 6.4 1.5 71 1006.7 15.2 W 15.2 0.0 0.4
02:46 6.4 1.5 71 1006.5 11.4 W 15.2 0.0 0.4
02:48 6.5 1.6 71 1006.6 9.8 NW 15.2 0.0 0.4
02:49 6.5 1.6 71 1006.7 8.3 W 15.2 0.0 0.4
02:50 6.5 1.4 70 1006.7 12.1 S 15.2 0.0 0.4
02:51 6.6 1.5 70 1006.6 19.0 NW 19.0 0.0 0.4
02:52 6.6 1.5 70 1006.6 13.6 WSW 19.0 0.0 0.4
02:53 6.6 1.5 70 1006.6 13.0 NW 19.0 0.0 0.4
02:54 6.7 1.6 70 1006.7 12.1 NW 19.0 0.0 0.4
02:55 6.7 1.6 70 1006.7 16.8 W 19.0 0.0 0.4
02:56 6.7 1.6 70 1006.7 9.2 WSW 19.0 0.0 0.4
02:57 6.7 1.6 70 1006.6 9.8 SW 19.0 0.0 0.4
02:58 6.7 1.6 70 1006.7 7.6 SW 19.0 0.0 0.4
02:59 6.7 1.6 70 1006.6 7.6 W 19.0 0.0 0.4
03:00 6.7 1.6 70 1006.7 7.6 W 19.0 0.0 0.4
03:01 6.7 1.6 70 1006.7 7.6 W 16.8 0.0 0.4
03:02 6.7 1.6 70 1006.6 7.6 W 16.8 0.0 0.4
03:03 6.7 1.6 70 1006.6 7.6 W 16.8 0.0 0.4
03:05 6.6 1.3 69 1006.7 13.6 W 13.6 0.0 0.4
03:06 6.7 1.2 68 1006.4 13.0 SW 13.6 0.0 0.4
03:07 6.6 1.1 68 1006.5 16.8 NW 16.8 0.0 0.4
03:08 6.6 1.1 68 1006.5 16.8 NW 16.8 0.0 0.4
03:09 6.6 1.1 68 1006.5 13.0 WNW 16.8 0.0 0.4
03:10 6.6 1.1 68 1006.5 9.8 W 16.8 0.0 0.4
03:11 6.6 1.1 68 1006.5 10.7 SW 16.8 0.0 0.4
03:12 6.6 1.1 68 1006.4 8.3 W 16.8 0.0 0.4
03:13 6.6 1.1 68 1006.4 13.0 SW 16.8 0.0 0.4
03:14 6.6 1.1 68 1006.4 13.0 SW 16.8 0.0 0.4
03:15 6.5 1.0 68 1006.4 13.6 SW 16.8 0.0 0.4
03:16 6.6 0.9 67 1006.4 10.7 W 16.8 0.0 0.4
03:17 6.5 0.8 67 1006.4 12.1 NW 16.8 0.0 0.4
03:19 6.5 0.8 67 1006.5 11.4 W 16.8 0.0 0.4
03:20 6.5 0.8 67 1006.4 9.2 SW 16.8 0.0 0.4
03:21 6.5 0.8 67 1006.3 12.1 WNW 16.8 0.0 0.4
03:22 6.5 0.8 67 1006.3 9.2 WNW 16.8 0.0 0.4
03:23 6.5 0.8 67 1006.5 12.1 SW 16.8 0.0 0.4
03:24 6.5 0.8 67 1006.4 12.1 SW 16.8 0.0 0.4
03:25 6.5 0.8 67 1006.4 11.4 SW 16.8 0.0 0.4
03:26 6.5 0.8 67 1006.5 11.4 SW 16.8 0.0 0.4
03:27 6.5 0.8 67 1006.4 11.4 NW 16.8 0.0 0.4
03:28 6.5 0.8 67 1006.7 13.0 S 16.8 0.0 0.4
03:29 6.5 0.8 67 1006.4 16.8 N 16.8 0.0 0.4
03:30 6.5 0.8 67 1006.4 16.8 N 16.8 0.8 0.5
03:31 6.4 0.7 67 1006.4 15.9 N 16.8 0.8 0.5
03:32 6.4 0.7 67 1006.4 22.1 W 22.1 0.8 0.5
03:34 6.3 0.8 68 1006.6 19.7 NW 22.1 0.8 0.5
03:35 6.3 0.8 68 1006.7 15.2 SW 22.1 0.0 0.5
03:36 6.3 0.8 68 1006.7 15.2 SW 22.1 0.0 0.5
03:37 6.2 0.7 68 1006.6 12.1 NW 22.1 0.0 0.5
03:38 6.2 0.7 68 1006.6 14.5 NW 22.1 0.0 0.5
03:39 6.1 0.6 68 1006.6 12.1 W 22.1 0.0 0.5
03:40 6.1 0.6 68 1006.7 10.7 W 22.1 0.0 0.5
03:41 6.0 0.5 68 1006.5 8.3 NW 22.1 0.0 0.5
03:42 6.0 0.7 69 1006.7 11.4 NW 22.1 0.0 0.5
03:43 5.9 0.7 69 1006.5 11.4 NW 19.7 0.0 0.5
03:44 5.9 0.7 69 1006.6 8.3 NW 19.7 0.0 0.5
03:45 5.9 0.9 70 1006.4 13.0 NW 15.2 0.0 0.5
03:46 5.8 0.8 70 1006.5 10.7 SW 15.2 0.0 0.5
03:47 5.8 0.8 70 1006.6 10.7 WSW 15.2 0.0 0.5
03:49 5.8 0.8 70 1006.7 8.3 NW 13.6 0.0 0.5
03:50 5.8 0.8 70 1006.6 11.4 SW 13.6 0.0 0.5
03:51 5.7 0.7 70 1006.5 5.4 SW 13.6 0.0 0.5
03:52 5.7 0.7 70 1006.5 5.4 SW 13.0 0.0 0.5
03:53 5.8 0.8 70 1006.5 9.8 W 13.0 0.0 0.5
03:54 5.7 0.9 71 1006.4 7.6 W 13.0 0.0 0.5
03:55 5.7 0.9 71 1006.5 7.6 N 13.0 0.0 0.5
03:56 5.7 0.9 71 1006.4 7.6 NW 11.4 0.0 0.5
03:57 5.7 0.9 71 1006.3 6.9 W 11.4 0.0 0.5
03:58 5.7 0.9 71 1006.4 8.3 SW 11.4 0.0 0.5
03:59 5.7 0.9 71 1006.3 7.6 N 11.4 0.0 0.5
04:00 5.6 0.8 71 1006.3 7.6 NW 10.7 0.0 0.5
04:01 5.6 0.8 71 1006.2 7.6 NW 10.7 0.0 0.5
04:02 5.6 0.8 71 1006.4 7.6 NW 10.7 0.0 0.5
04:04 5.6 0.8 71 1006.3 7.6 NW 8.3 0.0 0.5
04:05 5.7 1.1 72 1006.4 9.2 N 9.2 0.0 0.5
04:06 5.7 1.1 72 1006.5 7.6 W 9.2 0.0 0.5
04:07 5.7 1.1 72 1006.4 6.9 NW 9.2 0.0 0.5
04:08 5.7 1.1 72 1006.2 10.7 SW 10.7 0.0 0.5
04:09 5.7 1.1 72 1006.5 9.2 W 10.7 0.0 0.5
04:10 5.8 1.1 72 1006.5 8.3 SW 11.4 0.0 0.5
04:11 5.8 1.1 72 1006.6 15.2 SW 15.2 0.0 0.5
04:12 5.8 1.1 72 1006.7 15.9 NW 15.9 0.0 0.5
04:13 5.9 1.2 72 1006.7 19.7 NW 19.7 0.0 0.5
04:14 6.0 1.3 72 1006.7 16.8 SE 22.1 0.0 0.6
04:15 6.0 1.3 72 1006.6 15.2 W 22.1 0.8 0.6
04:16 6.0 1.3 72 1006.6 16.8 W 22.1 1.5 0.6
04:18 6.0 1.1 71 1006.6 17.4 W 22.1 1.5 0.6
04:19 6.0 1.1 71 1006.5 19.0 W 22.1 1.5 0.6
04:20 6.0 1.1 71 1006.5 12.1 NW 22.1 0.8 0.6
04:21 6.0 1.1 71 1006.5 12.1 NW 22.1 0.0 0.6
04:22 6.0 1.1 71 1006.6 17.4 NW 22.1 0.0 0.6
04:23 5.9 1.0 71 1006.5 15.2 NW 22.1 0.0 0.6
04:24 5.9 1.0 71 1006.5 13.0 W 22.1 0.0 0.6
04:25 5.9 1.0 71 1006.6 15.2 NW 22.1 0.0 0.6
04:26 5.9 0.9 70 1006.4 9.8 W 22.1 0.0 0.6
04:27 5.9 0.9 70 1006.5 10.7 W 22.1 0.0 0.6
04:28 5.9 0.9 70 1006.5 13.6 SW 19.0 0.0 0.6
04:29 5.9 0.9 70 1006.5 10.7 S 19.0 0.0 0.6
04:30 5.9 0.9 70 1006.5 9.2 WNW 17.4 0.0 0.6
04:32 5.9 0.9 70 1006.5 13.0 W 17.4 0.0 0.6
04:33 5.9 0.9 70 1006.4 13.0 WNW 15.9 0.0 0.6
04:34 5.9 0.9 70 1006.4 11.4 SW 15.9 0.0 0.6
04:35 5.9 0.9 70 1006.4 10.7 SW 15.9 0.0 0.6
04:36 5.9 0.9 70 1006.6 10.7 W 15.9 0.0 0.6
04:37 5.9 0.9 70 1006.4 9.8 W 15.9 0.0 0.6
04:38 5.9 0.9 70 1006.5 13.0 SW 15.9 0.0 0.6
04:39 5.8 0.8 70 1006.4 13.0 WNW 15.9 0.0 0.6
04:40 5.8 0.8 70 1006.4 8.3 NW 15.9 0.0 0.6
04:41 5.8 0.6 69 1006.6 8.3 NW 15.9 0.0 0.6
04:42 5.8 0.6 69 1006.5 6.9 S 13.0 0.0 0.6
04:43 5.7 0.5 69 1006.5 9.2 SW 13.0 0.0 0.6
04:44 5.7 0.5 69 1006.4 12.1 NW 13.0 0.0 0.6
04:46 5.7 0.5 69 1006.3 10.7 W 13.0 0.0 0.6
04:47 5.7 0.5 69 1006.4 11.4 SW 13.0 0.0 0.6
04:48 5.7 0.5 69 1006.5 7.6 NW 13.0 0.0 0.6
04:49 5.7 0.5 69 1006.5 7.6 NW 13.0 0.0 0.6
04:50 5.7 0.5 69 1006.3 12.1 N 12.1 0.0 0.6
04:51 5.7 0.7 70 1006.4 14.5 NW 14.5 0.0 0.6
04:52 5.7 0.7 70 1006.5 9.8 W 14.5 0.0 0.6
04:53 5.7 0.7 70 1006.5 9.8 SW 14.5 0.0 0.6
04:54 5.7 0.7 70 1006.2 15.2 S 15.2 0.0 0.6
04:55 5.8 0.8 70 1006.4 13.0 NW 15.2 0.0 0.6
04:56 5.9 0.9 70 1006.3 17.4 NW 17.4 0.0 0.6
04:57 5.9 0.9 70 1006.4 11.4 WSW 17.4 0.0 0.6
04:58 5.9 0.9 70 1006.4 8.3 W 17.4 0.0 0.6
05:00 6.0 0.9 70 1006.3 14.5 NW 17.4 0.0 0.6
05:01 6.0 0.9 70 1006.3 14.5 NW 17.4 0.0 0.6
05:02 6.0 0.9 70 1006.3 14.5 NW 17.4 0.0 0.6
05:04 6.0 0.9 70 1006.3 14.5 NW 17.4 0.0 0.6
05:05 6.0 0.7 69 1006.2 13.0 W 17.4 0.0 0.6
05:06 6.0 0.7 69 1006.2 6.9 NW 17.4 0.0 0.6
05:07 6.0 0.7 69 1006.3 9.8 SW 14.5 0.0 0.6
05:08 6.0 0.7 69 1006.4 6.9 SW 14.5 0.0 0.6
05:09 6.0 0.7 69 1006.3 9.2 W 14.5 0.0 0.6
05:10 6.0 0.7 69 1006.3 8.3 NW 14.5 0.0 0.6
05:11 5.9 0.5 68 1006.2 10.7 SW 14.5 0.0 0.6
05:12 5.9 0.5 68 1006.3 7.6 SW 14.5 0.0 0.6
05:13 5.9 0.5 68 1006.2 9.2 SW 14.5 0.0 0.6
05:14 5.9 0.5 68 1006.2 9.2 SW 14.5 0.0 0.6
05:15 5.9 0.5 68 1006.3 9.8 SW 13.0 0.0 0.6
05:16 5.9 0.5 68 1006.5 11.4 E 11.4 0.0 0.6
05:18 5.9 0.5 68 1006.2 9.2 NW 11.4 0.0 0.6
05:19 6.0 0.5 68 1006.3 7.6 W 11.4 0.0 0.6
05:20 6.0 0.5 68 1006.2 9.2 SW 11.4 0.0 0.6
05:21 6.0 0.5 68 1006.2 9.2 SW 11.4 0.0 0.6
05:22 6.0 0.5 68 1006.2 9.2 W 11.4 0.0 0.6
05:23 6.0 0.5 68 1006.3 7.6 NW 11.4 0.0 0.6
05:24 6.0 0.7 69 1006.3 8.3 NW 11.4 0.0 0.6
05:25 6.0 0.7 69 1006.2 9.8 W 11.4 0.0 0.6
05:26 6.1 0.8 69 1006.1 9.8 W 11.4 0.0 0.6
05:27 6.1 0.8 69 1006.3 9.8 SW 11.4 0.0 0.6
05:28 6.1 0.8 69 1006.2 13.0 SW 13.0 0.0 0.6
05:29 6.2 0.9 69 1006.1 12.1 NW 13.0 0.0 0.6
05:30 6.2 0.9 69 1006.3 12.1 NW 13.0 0.0 0.6
05:31 6.2 0.9 69 1006.1 16.8 W 16.8 0.0 0.6
05:33 6.3 1.0 69 1006.1 13.6 W 16.8 0.0 0.6
05:34 6.3 1.0 69 1006.2 13.6 NW 16.8 0.0 0.6
05:35 6.3 1.0 69 1006.2 10.7 NW 16.8 0.0 0.6
05:36 6.4 1.1 69 1006.2 9.2 ESE 16.8 0.0 0.6
05:37 6.4 1.1 69 1006.1 13.0 W 16.8 0.0 0.6
05:38 6.4 1.1 69 1006.1 9.8 W 16.8 0.0 0.6
05:39 6.4 1.1 69 1006.1 8.3 SW 16.8 0.0 0.6
05:40 6.4 1.1 69 1006.2 12.1 SW 16.8 0.0 0.6
05:41 6.4 1.1 69 1006.1 11.4 W 16.8 0.0 0.6
05:42 6.4 1.1 69 1006.1 12.1 NW 16.8 0.0 0.6
05:43 6.4 1.1 69 1006.2 13.0 NW 13.6 0.0 0.6
05:44 6.4 1.1 69 1006.3 9.8 NW 13.0 0.0 0.6
05:45 6.4 1.1 69 1006.2 10.7 SW 13.0 0.0 0.6
05:47 6.3 1.0 69 1006.2 11.4 WSW 13.0 0.0 0.6
05:48 6.3 1.0 69 1006.2 8.3 S 13.0 0.0 0.6
05:49 6.3 1.0 69 1006.2 9.8 NW 13.0 0.0 0.6
05:50 6.3 0.8 68 1006.2 13.6 NW 13.6 0.0 0.6
05:51 6.3 0.8 68 1006.3 15.9 NW 15.9 0.0 0.6
05:52 6.3 0.8 68 1006.1 13.0 SW 15.9 0.0 0.6
05:53 6.3 0.8 68 1006.2 13.6 NW 15.9 0.0 0.6
05:54 6.3 0.8 68 1006.2 13.0 W 15.9 0.0 0.6
05:55 6.3 0.8 68 1006.1 9.2 W 15.9 0.0 0.6
05:56 6.3 0.8 68 1006.2 11.4 W 15.9 0.0 0.6
05:57 6.3 0.8 68 1006.1 10.7 W 15.9 0.0 0.6
05:58 6.3 0.8 68 1006.2 15.2 W 15.9 0.0 0.6
05:59 6.3 0.6 67 1006.3 10.7 SW 17.4 0.0 0.6
06:00 6.3 0.6 67 1006.2 10.7 SW 17.4 0.0 0.6
06:01 6.3 0.6 67 1006.0 10.7 SW 17.4 0.0 0.6
06:03 6.3 0.6 67 1006.1 10.7 SW 17.4 0.0 0.6
06:04 6.3 0.6 67 1006.2 10.7 SW 17.4 0.0 0.6
06:05 6.3 0.6 67 1006.2 9.2 N 17.4 0.0 0.6
06:06 6.2 0.5 67 1006.1 13.6 W 17.4 0.0 0.6
06:07 6.3 0.6 67 1006.1 9.2 NE 17.4 0.0 0.6
06:08 6.3 0.6 67 1006.2 13.6 NW 17.4 0.0 0.6
06:09 6.3 0.6 67 1006.1 15.9 W 15.9 0.0 0.6
06:10 6.3 0.6 67 1006.1 17.4 W 17.4 0.0 0.6
06:11 6.3 0.4 66 1006.4 19.7 NW 19.7 0.0 0.6
06:12 6.3 0.4 66 1006.3 22.1 N 22.1 0.0 0.6
06:13 6.3 0.2 65 1006.2 15.9 SW 22.1 0.0 0.6
06:14 6.3 0.2 65 1006.1 8.3 SW 22.1 0.0 0.6
06:15 6.3 0.0 64 1006.2 10.7 SW 22.1 0.0 0.6
06:16 6.3 0.0 64 1006.2 9.8 SW 22.1 0.0 0.6
06:17 6.3 0.0 64 1006.2 12.1 NW 22.1 0.0 0.6
06:19 6.2 -0.1 64 1006.1 14.5 NW 22.1 0.0 0.6
06:20 6.2 -0.1 64 1006.2 11.4 N 22.1 0.0 0.6
06:21 6.2 -0.1 64 1006.2 7.6 W 22.1 0.0 0.6
06:22 6.2 -0.1 64 1006.0 17.4 W 22.1 0.0 0.6
06:23 6.2 -0.1 64 1006.1 17.4 S 17.4 0.0 0.6
06:24 6.2 -0.1 64 1006.1 11.4 NW 17.4 0.0 0.6
06:25 6.2 -0.1 64 1006.2 10.7 NW 17.4 0.0 0.6
06:26 6.2 -0.1 64 1006.1 11.4 NW 17.4 0.0 0.6
06:27 6.2 0.1 65 1006.0 9.2 W 17.4 0.0 0.6
06:28 6.2 0.1 65 1006.0 11.4 NW 17.4 0.0 0.6
06:29 6.2 0.1 65 1006.0 13.6 NW 17.4 0.0 0.6
06:30 6.3 0.2 65 1005.9 6.9 W 17.4 0.0 0.6
06:31 6.2 0.1 65 1005.9 9.8 NW 17.4 0.0 0.6
06:32 6.2 0.1 65 1005.9 6.9 SW 17.4 0.0 0.6
06:34 6.3 0.4 66 1006.0 13.6 SW 13.6 0.0 0.6
06:35 6.3 0.4 66 1006.1 22.1 NW 22.1 0.0 0.6
06:36 6.3 0.4 66 1006.1 23.5 SW 23.5 0.0 0.6
06:37 6.3 0.4 66 1006.1 23.5 SW 23.5 0.0 0.6
06:38 6.3 0.6 67 1006.1 22.8 SW 23.5 0.0 0.6
06:39 6.3 0.6 67 1006.1 18.3 SW 23.5 0.0 0.6
06:40 6.2 0.5 67 1005.9 12.1 SW 23.5 0.0 0.6
06:41 6.2 0.5 67 1006.0 9.8 W 23.5 0.0 0.6
06:42 6.1 0.4 67 1005.9 15.9 SW 23.5 0.0 0.6
06:43 6.1 0.4 67 1006.0 12.1 SW 23.5 0.0 0.6
06:44 6.0 0.3 67 1005.9 12.1 W 23.5 0.0 0.6
06:45 6.0 0.3 67 1006.1 14.5 SW 23.5 0.0 0.6
06:46 5.9 0.2 67 1006.0 14.5 NW 23.5 0.0 0.6
06:48 5.8 0.4 68 1006.0 6.9 W 18.3 0.0 0.6
06:49 5.8 0.2 67 1005.9 8.3 NW 15.9 0.0 0.6
06:50 5.8 0.4 68 1005.9 9.2 W 15.9 0.0 0.6
06:51 5.7 0.3 68 1005.8 11.4 NW 15.9 0.0 0.6
06:52 5.7 0.3 68 1005.9 9.8 W 15.9 0.0 0.6
06:53 5.7 0.3 68 1005.8 9.2 SW 14.5 0.0 0.6
06:54 5.6 0.2 68 1005.7 9.8 SW 14.5 0.0 0.6
06:55 5.6 0.2 68 1006.0 11.4 SW 14.5 0.0 0.6
06:56 5.6 0.2 68 1005.8 10.7 W 14.5 0.0 0.6
06:57 5.6 0.4 69 1005.7 9.2 SW 11.4 0.0 0.6
06:58 5.6 0.4 69 1005.7 11.4 SW 11.4 0.0 0.6
06:59 5.6 0.4 69 1005.8 15.9 SW 15.9 0.0 0.6
07:00 5.6 0.4 69 1005.8 15.9 SW 15.9 0.0 0.6
07:01 5.6 0.4 69 1005.9 15.9 SW 15.9 0.0 0.6
07:02 5.6 0.4 69 1005.9 15.9 SW 15.9 0.0 0.6
07:03 5.6 0.4 69 1006.0 15.9 SW 15.9 0.0 0.6
07:04 5.6 0.4 69 1005.7 15.9 SW 15.9 0.0 0.6
07:05 5.8 0.8 70 1005.8 11.4 W 15.9 0.0 0.6
07:06 5.9 0.9 70 1005.8 15.2 NW 15.9 0.0 0.6
07:07 5.9 0.9 70 1005.8 15.9 W 15.9 0.0 0.6
07:09 6.0 0.9 70 1005.9 9.2 SW 15.9 0.0 0.6
07:10 6.0 0.9 70 1005.8 12.1 WSW 15.9 0.0 0.6
07:11 6.0 0.9 70 1005.8 14.5 NW 15.9 0.0 0.6
07:12 6.0 0.9 70 1005.8 14.5 SW 15.9 0.0 0.6
07:13 6.1 0.8 69 1005.8 12.1 SSW 15.9 0.0 0.6
07:14 6.1 0.8 69 1005.8 11.4 SW 15.9 0.0 0.6
07:15 6.1 0.8 69 1005.8 9.2 WNW 15.9 0.0 0.6
07:16 6.1 0.8 69 1005.9 7.6 N 15.9 0.0 0.6
07:17 6.1 0.8 69 1005.9 10.7 NW 15.9 0.0 0.6
07:18 6.1 0.8 69 1005.8 11.4 SW 15.9 0.0 0.6
07:19 6.1 0.8 69 1005.8 6.9 NW 14.5 0.0 0.6
07:20 6.1 0.6 68 1005.8 14.5 NW 14.5 0.0 0.6
07:21 6.1 0.6 68 1005.8 9.8 SW 14.5 0.0 0.6
07:23 6.2 0.7 68 1005.8 9.2 W 14.5 0.0 0.6
07:24 6.2 0.7 68 1005.8 11.4 S 14.5 0.0 0.6
07:25 6.2 0.7 68 1005.8 11.4 S 14.5 0.0 0.6
07:26 6.2 0.7 68 1005.9 9.2 W 14.5 0.0 0.6
07:27 6.2 0.7 68 1005.9 10.7 WNW 14.5 0.0 0.6
07:28 6.2 0.7 68 1005.9 7.6 N 14.5 0.0 0.6
07:29 6.2 0.7 68 1005.8 6.9 W 14.5 0.0 0.6
07:30 6.2 0.7 68 1005.9 7.6 W 14.5 0.0 0.6
07:31 6.2 0.7 68 1005.9 6.0 NW 13.0 0.0 0.6
07:32 6.2 0.7 68 1006.0 9.2 W 13.0 0.0 0.6
07:33 6.2 0.7 68 1006.0 9.2 NW 12.1 0.0 0.6
07:34 6.2 0.7 68 1005.9 10.7 WSW 12.1 0.0 0.6
07:35 6.2 0.7 68 1006.0 11.4 SW 12.1 0.0 0.6
07:37 6.2 0.7 68 1006.1 11.4 W 12.1 0.0 0.6
07:38 6.2 0.7 68 1006.0 15.9 SW 15.9 0.0 0.6
07:39 6.2 0.5 67 1006.0 13.6 W 15.9 0.0 0.6
07:40 6.2 0.5 67 1006.0 13.6 W 15.9 0.0 0.6
07:41 6.3 0.6 67 1006.1 11.4 SW 15.9 0.0 0.6
07:42 6.3 0.6 67 1006.1 14.5 SW 18.3 0.0 0.6
07:43 6.3 0.6 67 1006.0 9.8 SW 18.3 0.0 0.6
07:44 6.3 0.6 67 1006.1 9.2 W 18.3 0.0 0.6
07:45 6.3 0.6 67 1006.0 9.2 NW 18.3 0.0 0.6
07:46 6.3 0.4 66 1006.0 14.5 NW 18.3 0.0 0.6
07:47 6.3 0.4 66 1005.9 11.4 SW 18.3 0.0 0.6
07:48 6.3 0.4 66 1005.9 10.7 W 18.3 0.0 0.6
07:49 6.3 0.4 66 1006.0 8.3 W 18.3 0.0 0.6
07:50 6.3 0.4 66 1006.1 8.3 NW 18.3 0.0 0.6
07:52 6.2 0.3 66 1006.1 6.9 SE 14.5 0.0 0.6
07:53 6.3 0.6 67 1006.0 9.8 NW 14.5 0.0 0.6
07:54 6.2 0.5 67 1006.1 8.3 W 14.5 0.0 0.6
07:55 6.2 0.5 67 1006.0 8.3 W 14.5 0.0 0.6
07:56 6.3 0.6 67 1006.0 14.5 N 14.5 0.0 0.6
07:57 6.3 0.6 67 1006.2 10.7 W 14.5 0.0 0.6
07:58 6.3 0.6 67 1006.1 12.1 W 14.5 0.0 0.6
07:59 6.3 0.6 67 1006.1 6.9 S 14.5 0.0 0.6
08:00 6.3 0.6 67 1006.1 9.2 NW 14.5 0.0 0.6
08:01 6.3 0.6 67 1006.1 9.2 NW 14.5 0.0 0.6
08:02 6.4 0.9 68 1006.1 15.2 W 15.2 0.0 0.6
08:03 6.5 1.0 68 1006.1 14.5 SW 15.2 0.0 0.6
08:04 6.5 1.0 68 1006.0 11.4 SW 15.2 0.0 0.6
08:06 6.5 1.0 68 1006.2 15.9 NW 15.9 0.0 0.6
08:07 6.6 1.1 68 1006.1 21.3 SW 21.3 0.0 0.6
08:08 6.6 1.1 68 1006.1 21.3 SW 21.3 0.0 0.6
08:09 6.6 1.1 68 1006.2 17.4 SW 21.3 0.0 0.6
08:10 6.6 0.9 67 1006.3 15.2 S 21.3 0.0 0.6
08:11 6.5 1.0 68 1006.2 15.2 SW 21.3 0.0 0.6
08:12 6.5 1.0 68 1006.2 13.0 SW 21.3 0.0 0.6
08:13 6.5 1.0 68 1006.1 14.5 W 21.3 0.0 0.6
08:14 6.4 0.9 68 1006.1 12.1 SW 21.3 0.0 0.6
08:15 6.4 0.9 68 1006.0 12.1 SW 21.3 0.0 0.6
08:16 6.3 0.8 68 1006.0 12.1 WNW 21.3 0.0 0.6
08:17 6.3 0.6 67 1005.9 7.6 SW 21.3 0.0 0.6
08:18 6.3 0.6 67 1006.1 8.3 SW 17.4 0.0 0.6
08:20 6.3 0.6 67 1006.0 7.6 W 15.2 0.0 0.6
08:21 6.3 0.6 67 1006.0 10.7 SW 14.5 0.0 0.6
08:22 6.2 0.5 67 1006.2 6.9 W 14.5 0.0 0.6
08:23 6.2 0.5 67 1005.9 13.6 SW 13.6 0.0 0.6
08:24 6.2 0.5 67 1006.0 13.6 NW 13.6 0.0 0.6
08:25 6.2 0.5 67 1006.0 4.5 W 13.6 0.0 0.6
08:26 6.2 0.5 67 1006.1 8.3 SW 13.6 0.0 0.6
08:27 6.2 0.5 67 1006.0 7.6 W 13.6 0.0 0.6
08:28 6.2 0.5 67 1006.0 9.8 NW 13.6 0.0 0.6
08:29 6.2 0.5 67 1006.0 9.2 NW 13.6 0.0 0.6
08:30 6.2 0.7 68 1006.2 11.4 NW 13.6 0.0 0.6
08:31 6.2 0.7 68 1006.1 10.7 SW 13.6 0.0 0.6
08:32 6.3 0.8 68 1006.3 13.0 SW 13.6 0.0 0.6
08:34 6.4 0.9 68 1006.2 16.8 SW 16.8 0.0 0.6
08:35 6.4 1.1 69 1006.2 14.5 SW 17.4 0.0 0.6
08:36 6.4 1.1 69 1006.2 12.1 SW 17.4 0.0 0.6
08:37 6.4 1.1 69 1006.2 12.1 SW 17.4 0.0 0.6
08:38 6.4 1.1 69 1006.2 11.4 W 17.4 0.0 0.6
08:39 6.5 1.0 68 1006.1 12.1 W 17.4 0.0 0.6
08:40 6.5 1.0 68 1006.3 11.4 N 17.4 0.0 0.6
08:41 6.5 1.2 69 1006.2 9.8 SW 17.4 0.0 0.6
08:42 6.5 1.0 68 1006.2 16.8 NW 17.4 0.0 0.6
08:43 6.5 1.2 69 1006.2 8.3 SW 17.4 0.0 0.6
08:44 6.5 1.2 69 1006.3 13.0 SW 17.4 0.0 0.6
08:45 6.5 1.2 69 1006.2 17.4 NW 17.4 0.0 0.6
08:46 6.5 1.2 69 1006.3 13.0 S 17.4 0.0 0.6
08:47 6.5 1.2 69 1006.4 19.0 WSW 19.0 0.0 0.6
08:49 6.5 1.0 68 1006.3 19.0 SW 19.7 0.0 0.6
08:50 6.5 1.0 68 1006.2 18.3 SW 19.7 0.0 0.6
08:51 6.5 1.0 68 1006.3 15.9 NW 19.7 0.0 0.6
08:52 6.5 1.0 68 1006.3 13.6 SW 19.7 0.0 0.6
08:53 6.5 1.0 68 1006.3 9.2 SW 19.7 0.0 0.6
08:54 6.5 1.0 68 1006.2 13.0 SW 19.7 0.0 0.6
08:55 6.5 0.8 67 1006.2 13.6 NW 19.7 0.0 0.6
08:56 6.4 0.7 67 1006.2 9.2 SW 19.7 0.0 0.6
08:57 6.4 0.7 67 1006.2 10.7 SW 19.7 0.0 0.6
08:58 6.4 0.7 67 1006.1 9.8 S 19.7 0.0 0.6
08:59 6.4 0.7 67 1006.2 9.8 W 19.0 0.0 0.6
09:00 6.4 0.7 67 1006.1 9.8 W 15.9 0.0 0.6
09:01 6.4 0.7 67 1006.2 6.9 NW 13.6 0.0 0.6
09:02 6.4 0.7 67 1006.1 9.2 NW 13.6 0.0 0.6
09:03 6.4 0.7 67 1005.9 9.2 W 13.6 0.0 0.6
09:04 6.4 0.7 67 1006.0 11.4 NW 13.6 0.0 0.6
09:05 6.4 0.7 67 1006.0 13.0 W 13.6 0.0 0.6
09:06 6.4 0.9 68 1006.0 8.3 W 13.6 0.0 0.6
09:07 6.5 1.0 68 1006.1 19.0 W 19.0 0.0 0.6
09:08 6.5 1.0 68 1006.1 9.2 W 19.0 0.0 0.6
09:09 6.6 1.1 68 1005.9 8.3 W 19.0 0.0 0.6
09:10 6.6 1.1 68 1006.0 9.2 S 19.0 0.0 0.6
09:11 6.7 1.2 68 1006.0 8.3 W 19.0 0.0 0.6
09:13 6.7 1.2 68 1006.2 16.8 N 19.0 0.0 0.6
09:14 6.8 1.3 68 1005.9 9.2 NW 19.0 0.0 0.6
09:15 6.8 1.3 68 1006.0 12.1 NNW 19.0 0.0 0.6
09:16 6.8 1.3 68 1006.0 12.1 NNW 19.0 0.0 0.6
09:17 6.8 1.3 68 1005.9 8.3 SW 19.0 0.0 0.6
09:18 6.8 1.3 68 1006.1 10.7 SW 19.0 0.0 0.6
09:19 6.9 1.2 67 1006.1 11.4 NW 16.8 0.0 0.6
09:20 6.9 1.2 67 1006.0 9.2 W 16.8 0.0 0.6
09:21 6.9 1.2 67 1006.1 13.6 S 16.8 0.0 0.6
09:22 6.9 1.2 67 1006.1 13.6 NW 16.8 0.0 0.6
09:23 6.9 1.0 66 1006.1 15.2 W 16.8 0.0 0.6
09:24 6.9 1.0 66 1006.1 13.0 W 15.9 0.0 0.6
09:25 7.0 1.1 66 1006.0 12.1 NNW 15.9 0.0 0.6
09:27 7.0 1.1 66 1006.1 13.0 SW 15.9 0.0 0.6
09:28 7.0 1.1 66 1006.2 12.1 W 15.9 0.0 0.6
09:29 7.1 1.2 66 1006.2 11.4 NNW 15.9 0.0 0.6
09:30 7.1 1.2 66 1006.2 15.9 NW 15.9 0.0 0.6
09:31 7.1 1.0 65 1006.0 15.9 SW 15.9 0.0 0.6
09:32 7.0 0.9 65 1006.0 14.5 NW 15.9 0.0 0.6
09:33 7.2 1.1 65 1006.2 13.6 SW 15.9 0.0 0.6
09:34 7.4 1.3 65 1006.1 20.6 SW 20.6 0.0 0.6
09:35 7.4 1.3 65 1006.1 19.0 NW 20.6 0.0 0.6
09:36 7.5 1.4 65 1006.0 16.8 W 20.6 0.0 0.6
09:37 7.6 1.4 65 1006.2 20.6 N 20.6 0.0 0.6
09:38 7.6 1.4 65 1006.2 15.2 W 20.6 0.0 0.6
09:39 7.6 1.4 65 1006.1 16.8 SW 20.6 0.0 0.6
09:41 7.6 1.4 65 1006.1 11.4 NW 20.6 0.0 0.6
09:42 7.6 1.4 65 1006.1 8.3 SW 20.6 0.0 0.6
09:43 7.5 1.1 64 1006.1 13.0 WSW 20.6 0.0 0.6
09:44 7.5 1.1 64 1006.1 13.0 WSW 20.6 0.0 0.6
09:45 7.5 1.1 64 1006.2 7.6 WNW 20.6 0.0 0.6
09:46 7.4 1.3 65 1006.1 10.7 SW 20.6 0.0 0.6
09:47 7.4 1.0 64 1006.1 11.4 SW 20.6 0.0 0.6
09:48 7.4 1.3 65 1006.1 7.6 SW 16.8 0.0 0.6
09:49 7.4 1.3 65 1006.2 9.2 SW 16.8 0.0 0.6
09:50 7.5 1.4 65 1006.2 11.4 SW 16.8 0.0 0.6
09:51 7.5 1.4 65 1006.2 18.3 W 18.3 0.0 0.6
09:52 7.5 1.4 65 1006.1 13.0 W 18.3 0.0 0.6
09:53 7.6 1.4 65 1006.0 13.0 N 18.3 0.0 0.6
09:55 7.6 1.4 65 1006.1 15.9 SW 18.3 0.0 0.6
09:56 7.6 1.4 65 1006.2 12.1 W 18.3 0.0 0.6
09:57 7.6 1.4 65 1006.2 14.5 SW 18.3 0.0 0.6
09:58 7.6 1.4 65 1006.2 14.5 SW 18.3 0.0 0.6
09:59 7.7 1.5 65 1006.2 15.9 NW 18.3 0.0 0.6
10:00 7.7 1.5 65 1006.2 11.4 SW 18.3 0.0 0.6
10:01 7.7 1.5 65 1006.2 11.4 SW 18.3 0.0 0.6
10:02 7.8 1.4 64 1006.2 10.7 W 18.3 0.0 0.6
10:03 7.9 1.5 64 1006.0 11.4 SW 16.8 0.0 0.6
10:04 7.9 1.5 64 1006.2 15.2 W 16.8 0.0 0.6
10:05 8.0 1.4 63 1006.1 15.2 N 16.8 0.0 0.6
10:06 8.1 1.5 63 1006.2 17.4 N 17.4 0.0 0.6
10:07 8.1 1.5 63 1006.2 13.6 W 17.4 0.0 0.6
10:09 8.2 1.6 63 1006.2 13.6 NW 17.4 0.0 0.6
10:10 8.3 1.7 63 1006.2 15.2 W 17.4 0.0 0.6
10:11 8.4 1.5 62 1006.3 14.5 WSW 17.4 0.0 0.6
10:12 8.4 1.5 62 1006.3 14.5 WSW 17.4 0.0 0.6
10:13 8.4 1.8 63 1006.3 12.1 SW 17.4 0.0 0.6
10:14 8.5 1.9 63 1006.2 15.9 SW 17.4 0.0 0.6
10:15 8.5 1.9 63 1006.2 16.8 WSW 17.4 0.0 0.6
10:16 8.6 2.0 63 1006.2 10.7 NW 17.4 0.0 0.6
10:17 8.6 1.7 62 1006.3 15.9 SW 16.8 0.0 0.6
10:18 8.6 1.7 62 1006.3 15.9 SW 16.8 0.0 0.6
10:19 8.7 1.8 62 1006.2 13.6 SW 16.8 0.0 0.6
10:20 8.7 1.8 62 1006.3 13.0 SW 16.8 0.0 0.6
10:21 8.8 1.9 62 1006.3 11.4 WSW 16.8 0.0 0.6
10:22 8.8 1.9 62 1006.3 14.5 W 16.8 0.0 0.6
10:24 8.9 2.0 62 1006.3 9.8 W 18.3 0.0 0.6
10:25 8.9 2.0 62 1006.1 20.6 SW 20.6 0.0 0.6
10:26 8.9 1.8 61 1006.1 17.4 SW 20.6 0.0 0.6
10:27 8.9 1.8 61 1006.1 18.3 W 20.6 0.0 0.6
10:28 8.9 1.8 61 1006.3 18.3 SW 20.6 0.0 0.6
10:29 8.9 1.6 60 1006.2 16.8 W 20.6 0.0 0.6
10:30 9.0 1.7 60 1006.3 12.1 SW 20.6 0.0 0.6
10:31 9.0 1.7 60 1006.3 15.2 NW 20.6 0.0 0.6
10:32 9.0 1.7 60 1006.4 17.4 N 20.6 0.0 0.6
10:33 9.0 1.4 59 1006.4 19.0 NW 20.6 0.0 0.6
10:34 9.0 1.2 58 1006.5 15.9 NW 20.6 0.0 0.6
10:35 8.9 0.8 57 1006.3 11.4 WNW 20.6 0.0 0.6
10:36 8.9 0.8 57 1006.3 18.3 SW 19.0 0.0 0.6
10:38 8.8 0.8 57 1006.4 15.9 NE 19.0 0.0 0.6
10:39 8.8 1.0 58 1006.3 14.5 W 19.0 0.0 0.6
10:40 8.8 1.0 58 1006.3 14.5 W 19.0 0.0 0.6
10:41 8.9 1.1 58 1006.4 14.5 SW 19.0 0.0 0.6
10:42 8.8 1.0 58 1006.3 13.0 W 19.0 0.0 0.6
10:43 8.8 1.0 58 1006.5 9.8 SW 18.3 0.0 0.6
10:44 8.8 1.0 58 1006.5 12.1 WSW 18.3 0.0 0.6
10:45 8.7 0.9 58 1006.4 11.4 SW 18.3 0.0 0.6
10:46 8.6 0.8 58 1006.4 11.4 NW 18.3 0.0 0.6
10:47 8.6 0.8 58 1006.3 10.7 SW 15.9 0.0 0.6
10:48 8.5 0.7 58 1006.4 11.4 W 14.5 0.0 0.6
10:49 8.5 0.7 58 1006.4 9.8 SW 14.5 0.0 0.6
10:50 8.5 0.7 58 1006.4 13.0 SW 14.5 0.0 0.6
10:52 8.5 0.9 59 1006.4 9.2 NW 13.0 0.0 0.6
10:53 8.5 0.9 59 1006.4 13.0 W 13.0 0.0 0.6
10:54 8.6 1.0 59 1006.5 12.1 NW 13.0 0.0 0.6
10:55 8.6 1.0 59 1006.3 19.0 SW 19.0 0.0 0.6
10:56 8.6 1.0 59 1006.5 24.4 W 24.4 0.0 0.6
10:57 8.6 1.0 59 1006.5 15.2 SW 24.4 0.0 0.6
10:58 8.5 0.9 59 1006.5 13.6 S 24.4 0.0 0.6
10:59 8.5 1.2 60 1006.4 13.6 S 24.4 0.0 0.6
11:00 8.4 1.1 60 1006.5 9.2 NW 24.4 0.0 0.6
11:01 8.4 1.1 60 1006.5 9.2 NW 24.4 0.0 0.6
11:02 8.3 1.0 60 1006.5 13.0 NW 24.4 0.0 0.6
11:03 8.2 1.1 61 1006.3 9.8 NW 24.4 0.0 0.6
11:05 8.2 1.1 61 1006.3 12.1 NW 24.4 0.0 0.6
11:06 8.3 1.2 61 1006.3 15.2 NW 24.4 0.0 0.6
11:07 8.3 1.5 62 1006.3 12.1 SW 15.2 0.0 0.6
11:08 8.3 1.5 62 1006.5 15.9 E 15.9 0.0 0.6
11:09 8.3 1.5 62 1006.4 13.6 E 15.9 0.0 0.6
11:10 8.3 1.5 62 1006.4 13.0 SW 15.9 0.0 0.6
11:11 8.4 1.5 62 1006.4 15.9 W 16.8 0.0 0.6
11:12 8.4 1.3 61 1006.3 18.3 WNW 18.3 0.0 0.6
11:14 8.5 1.4 61 1006.4 19.0 NW 19.0 0.0 0.6
11:15 8.5 1.2 60 1006.3 13.6 E 19.0 0.0 0.6
11:16 8.5 1.2 60 1006.3 13.6 E 19.0 0.0 0.6
11:17 8.5 1.2 60 1006.4 14.5 W 19.0 0.0 0.6
11:18 8.5 1.2 60 1006.4 16.8 SW 19.0 0.0 0.6
11:19 8.6 1.3 60 1006.4 9.8 W 19.0 0.0 0.6
11:20 8.6 1.3 60 1006.5 14.5 N 19.0 0.0 0.6
11:21 8.6 1.3 60 1006.4 12.1 NW 19.0 0.0 0.6
11:22 8.6 1.3 60 1006.3 11.4 NW 19.0 0.0 0.6
11:23 8.6 1.3 60 1006.4 10.7 NW 19.0 0.0 0.6
11:24 8.6 1.3 60 1006.2 20.6 W 20.6 0.0 0.6
11:25 8.5 0.9 59 1006.3 22.8 W 22.8 0.0 0.6
11:26 8.5 0.9 59 1006.2 17.4 SW 22.8 0.0 0.6
11:28 8.5 0.9 59 1006.3 9.8 W 22.8 0.0 0.6
11:29 8.5 0.9 59 1006.1 11.4 NW 22.8 0.0 0.6
11:30 8.6 1.0 59 1006.2 13.6 NW 22.8 0.0 0.6
11:31 8.6 1.0 59 1006.1 22.1 NW 22.8 0.0 0.6
11:32 8.7 1.1 59 1006.2 18.3 NW 22.8 0.0 0.6
11:33 8.7 1.1 59 1006.1 16.8 NW 22.8 0.0 0.6
11:34 8.8 1.2 59 1006.1 15.9 SW 22.8 0.0 0.6
11:35 8.9 1.1 58 1006.1 14.5 SW 22.8 0.0 0.6
11:36 8.9 1.1 58 1006.1 20.6 NW 22.1 0.0 0.6
11:37 9.0 1.2 58 1006.0 13.6 WNW 22.1 0.0 0.6
11:38 9.1 1.0 57 1006.1 17.4 W 22.1 0.0 0.6
11:39 9.2 1.1 57 1006.1 21.3 NW 22.1 0.0 0.6
11:40 9.2 1.1 57 1005.9 15.9 WSW 22.1 0.0 0.6
11:42 9.3 1.2 57 1005.8 16.8 SW 21.3 0.0 0.6
11:43 9.3 1.2 57 1005.9 15.9 SW 21.3 0.0 0.6
11:44 9.3 1.2 57 1005.9 15.9 SW 21.3 0.0 0.6
11:45 9.4 1.3 57 1005.9 19.0 SW 21.3 0.0 0.6
11:46 9.5 1.2 56 1005.9 18.3 NW 21.3 0.0 0.6
11:47 9.5 1.2 56 1005.9 18.3 NW 21.3 0.0 0.6
11:48 9.5 1.2 56 1005.9 8.3 W 21.3 0.0 0.6
11:49 9.5 1.4 57 1005.7 15.2 SW 21.3 0.0 0.6
11:50 9.6 1.3 56 1005.8 14.5 W 21.3 0.0 0.6
11:51 9.6 1.3 56 1005.7 15.2 SW 19.7 0.0 0.6
11:52 9.7 1.6 57 1005.9 15.2 W 19.7 0.0 0.6
11:53 9.7 1.6 57 1005.8 11.4 SW 19.7 0.0 0.6
11:54 9.8 1.7 57 1005.9 11.4 WSW 19.7 0.0 0.6
11:56 9.8 1.7 57 1005.9 14.5 NW 19.7 0.0 0.6
11:57 9.8 1.7 57 1005.8 15.9 SW 19.7 0.0 0.6
11:58 9.8 1.7 57 1005.8 17.4 SW 19.7 0.0 0.6
11:59 9.7 1.6 57 1005.8 22.8 N 22.8 0.0 0.6
12:00 9.7 1.6 57 1005.8 15.9 N 22.8 0.0 0.6
12:01 9.7 1.6 57 1005.8 15.9 N 22.8 0.0 0.6
12:02 9.6 1.5 57 1005.8 13.0 NW 22.8 0.0 0.6
12:03 9.6 1.5 57 1005.7 19.7 NW 22.8 0.0 0.6
12:04 9.6 1.5 57 1005.7 19.0 WSW 22.8 0.0 0.6
12:05 9.6 1.5 57 1005.9 13.0 W 22.8 0.0 0.6
12:06 9.6 1.5 57 1005.8 17.4 W 22.8 0.0 0.6
12:07 9.7 1.6 57 1005.9 11.4 NW 22.8 0.0 0.6
12:08 9.7 1.6 57 1005.8 15.9 SW 22.8 0.0 0.6
12:10 9.8 1.7 57 1006.0 13.0 SW 19.7 0.0 0.6
12:11 9.7 1.6 57 1005.8 25.1 S 25.1 0.0 0.6
12:12 9.7 1.6 57 1005.8 25.1 S 25.1 0.0 0.6
12:13 9.7 1.6 57 1005.8 22.8 SW 25.1 0.0 0.6
12:14 9.5 1.4 57 1005.8 20.6 SW 25.1 0.0 0.6
12:15 9.4 1.3 57 1005.9 15.2 SW 25.1 0.0 0.6
12:16 9.3 1.2 57 1005.8 15.9 WSW 25.1 0.0 0.6
12:17 9.2 1.1 57 1005.7 15.2 SW 25.1 0.0 0.6
12:18 9.1 1.0 57 1005.9 15.2 NW 25.1 0.0 0.6
12:19 9.0 0.9 57 1005.8 15.2 WNW 25.1 0.0 0.6
12:20 8.9 1.1 58 1005.9 9.8 NW 25.1 0.0 0.6
12:21 8.9 1.1 58 1005.8 10.7 NW 25.1 0.0 0.6
12:22 8.8 1.0 58 1005.7 12.1 S 22.8 0.0 0.6
12:23 8.8 1.0 58 1005.7 18.3 SW 21.3 0.0 0.6
12:25 8.9 1.1 58 1005.7 13.0 SW 18.3 0.0 0.6
12:26 8.9 1.1 58 1005.7 9.8 E 18.3 0.0 0.6
12:27 9.0 1.4 59 1005.8 15.2 N 18.3 0.0 0.6
12:28 9.0 1.4 59 1005.8 13.6 W 18.3 0.0 0.6
12:29 9.0 1.4 59 1005.9 22.1 SE 22.1 0.0 0.6
12:30 9.2 1.6 59 1005.9 13.6 NW 22.1 0.0 0.6
12:31 9.2 1.6 59 1005.7 23.5 NW 23.5 0.0 0.6
12:32 9.3 1.7 59 1005.8 24.4 SW 24.4 0.0 0.6
12:33 9.4 1.6 58 1005.7 22.8 SW 24.4 0.0 0.6
12:34 9.4 1.6 58 1005.8 22.8 W 24.4 0.0 0.7
12:35 9.5 1.4 57 1005.9 18.3 NW 24.4 0.8 0.7
12:36 9.5 1.4 57 1005.8 15.9 NW 24.4 0.8 0.7
12:37 9.6 1.5 57 1005.8 20.6 NW 24.4 0.8 0.7
12:39 9.6 1.3 56 1005.7 13.0 WSW 24.4 0.8 0.7
12:40 9.6 1.3 56 1005.7 19.0 WNW 24.4 0.0 0.7
12:41 9.6 1.3 56 1005.7 19.0 WNW 24.4 0.0 0.7
12:42 9.6 1.3 56 1005.7 18.3 NW 24.4 0.0 0.7
12:43 9.6 1.3 56 1005.7 12.1 W 22.8 0.0 0.7
12:44 9.5 1.2 56 1005.6 14.5 NW 22.8 0.0 0.7
12:45 9.5 1.2 56 1005.7 18.3 NW 20.6 0.0 0.7
12:46 9.3 1.0 56 1005.6 13.6 NW 20.6 0.0 0.7
12:47 9.3 1.0 56 1005.7 13.6 NW 20.6 0.0 0.7
12:48 9.3 1.0 56 1005.7 18.3 NW 19.7 0.0 0.7
12:49 9.2 0.9 56 1005.5 14.5 WSW 19.7 0.0 0.7
12:50 9.1 0.8 56 1005.5 9.8 W 19.7 0.0 0.7
12:51 9.1 0.8 56 1005.5 11.4 NW 19.7 0.0 0.7
12:52 9.1 0.8 56 1005.6 16.8 W 19.7 0.0 0.7
12:54 9.2 0.9 56 1005.5 15.2 W 19.7 0.0 0.7
12:55 9.3 1.0 56 1005.4 15.9 W 19.7 0.0 0.7
12:56 9.3 1.0 56 1005.4 15.9 W 18.3 0.0 0.7
12:57 9.3 1.0 56 1005.5 15.2 NW 18.3 0.0 0.7
12:58 9.4 1.1 56 1005.5 11.4 WNW 18.3 0.0 0.7
12:59 9.5 1.2 56 1005.5 15.2 W 16.8 0.0 0.7
13:00 9.5 1.2 56 1005.5 21.3 WNW 21.3 0.0 0.7
13:01 9.5 1.2 56 1005.4 21.3 WNW 21.3 0.0 0.7
13:02 9.7 1.3 56 1005.6 13.6 NW 22.1 0.0 0.7
13:03 9.7 1.3 56 1005.6 11.4 NW 22.1 0.0 0.7
13:04 9.8 1.4 56 1005.5 18.3 W 22.1 0.0 0.7
13:05 9.8 1.4 56 1005.3 19.0 SW 22.1 0.0 0.7
13:06 9.9 1.5 56 1005.6 17.4 N 22.1 0.0 0.7
13:07 9.9 1.3 55 1005.6 17.4 NW 22.1 0.0 0.7
13:08 10.0 1.6 56 1005.6 11.4 NW 22.1 0.0 0.7
13:09 10.0 1.6 56 1005.6 16.8 W 22.1 0.0 0.7
13:10 10.0 1.6 56 1005.6 11.4 SW 22.1 0.0 0.7
13:11 10.1 1.7 56 1005.2 15.2 N 22.1 0.0 0.7
13:12 10.1 1.5 55 1005.6 17.4 NW 19.0 0.0 0.7
13:13 10.1 1.5 55 1005.6 11.4 NW 19.0 0.0 0.7
13:15 10.1 1.5 55 1005.6 9.2 W 19.0 0.0 0.7
13:16 10.1 1.5 55 1005.9 13.0 SW 17.4 0.0 0.7
13:17 10.1 1.5 55 1005.6 11.4 WNW 17.4 0.0 0.7
13:18 10.1 1.5 55 1005.6 11.4 WNW 17.4 0.0 0.7
13:19 10.1 1.5 55 1005.6 14.5 W 17.4 0.0 0.7
13:20 10.1 1.2 54 1005.5 17.4 SW 17.4 0.0 0.7
13:21 10.1 1.2 54 1005.6 13.6 SW 17.4 0.0 0.7
13:22 10.1 1.2 54 1005.6 13.6 NW 17.4 0.0 0.7
13:23 10.1 1.2 54 1005.5 14.5 SSW 17.4 0.0 0.7
13:24 10.2 1.3 54 1005.6 22.8 SW 22.8 0.0 0.7
13:25 10.2 1.3 54 1005.4 17.4 WSW 22.8 0.0 0.7
13:26 10.2 1.3 54 1005.5 15.9 W 22.8 0.0 0.7
13:27 10.2 1.0 53 1005.5 19.7 SW 22.8 0.0 0.7
13:29 10.2 1.0 53 1005.4 12.1 W 22.8 0.0 0.7
13:30 10.2 1.0 53 1005.4 14.5 SW 22.8 0.0 0.7
13:31 10.2 1.0 53 1005.3 15.9 SW 22.8 0.0 0.7
13:32 10.2 1.0 53 1005.3 15.9 SW 22.8 0.0 0.7
13:33 10.1 1.0 53 1005.4 13.0 W 22.8 0.0 0.7
13:34 10.1 1.0 53 1005.3 16.8 NW 22.8 0.0 0.7
13:35 10.1 1.0 53 1005.3 13.0 N 19.7 0.0 0.7
13:36 10.1 1.2 54 1005.3 11.4 SW 19.7 0.0 0.7
13:37 10.1 1.2 54 1005.2 21.3 NW 21.3 0.0 0.7
13:38 10.1 1.0 53 1005.2 21.3 WNW 21.3 0.0 0.7
13:39 10.0 0.6 52 1005.2 18.3 SW 21.3 0.0 0.7
13:40 10.0 0.6 52 1005.3 15.9 W 21.3 0.0 0.7
13:41 10.0 0.6 52 1005.2 15.9 SW 21.3 0.0 0.7
13:42 10.0 0.3 51 1005.2 14.5 SW 21.3 0.0 0.7
13:44 9.9 0.5 52 1005.2 15.9 SW 21.3 0.0 0.7
13:45 9.9 0.5 52 1005.0 14.5 SW 21.3 0.0 0.7
13:46 9.9 0.5 52 1005.1 15.2 NW 21.3 0.0 0.7
13:47 9.9 0.5 52 1005.3 13.6 NW 21.3 0.0 0.7
13:48 9.9 0.5 52 1005.1 13.6 W 20.6 0.0 0.7
13:49 9.9 0.5 52 1005.1 17.4 SW 19.7 0.0 0.7
13:50 9.9 0.5 52 1005.1 13.6 SW 19.7 0.0 0.7
13:51 9.9 0.5 52 1005.0 16.8 NW 17.4 0.0 0.7
13:52 9.9 0.8 53 1005.1 13.6 W 17.4 0.0 0.7
13:53 9.9 0.8 53 1005.1 17.4 NW 17.4 0.0 0.7
13:54 9.8 0.7 53 1005.1 19.7 W 19.7 0.0 0.7
13:55 9.7 0.6 53 1005.0 11.4 W 19.7 0.0 0.7
13:56 9.7 0.8 54 1005.0 16.8 SW 19.7 0.0 0.7
13:57 9.7 0.8 54 1005.1 19.0 NE 19.7 0.0 0.7
13:59 9.7 0.8 54 1005.1 14.5 W 19.7 0.0 0.7
14:00 9.7 0.8 54 1005.2 14.5 W 19.7 0.0 0.7
14:01 9.7 1.1 55 1005.2 17.4 W 19.7 0.0 0.7
14:02 9.6 0.8 54 1005.1 21.3 W 21.3 0.0 0.7
14:03 9.6 0.8 54 1005.1 22.8 NW 22.8 0.0 0.7
14:04 9.6 0.8 54 1005.2 18.3 SW 22.8 0.0 0.7
14:05 9.5 0.7 54 1005.1 19.0 N 22.8 0.0 0.7
14:06 9.6 1.0 55 1005.1 13.6 NW 22.8 0.0 0.7
14:07 9.5 0.9 55 1005.0 14.5 SW 22.8 0.0 0.7
14:08 9.5 0.7 54 1005.1 15.2 NW 22.8 0.0 0.7
14:09 9.4 0.3 53 1005.1 15.9 NW 22.8 0.0 0.7
14:10 9.4 0.3 53 1005.1 11.4 NW 22.8 0.0 0.7
14:11 9.3 0.5 54 1005.1 15.2 SW 22.8 0.0 0.7
14:12 9.3 0.2 53 1005.0 13.6 W 22.8 0.0 0.7
14:14 9.3 0.2 53 1005.0 13.6 W 20.6 0.0 0.7
14:15 9.2 0.4 54 1005.0 13.6 SW 20.6 0.0 0.7
14:16 9.2 0.4 54 1005.0 13.6 SW 20.6 0.0 0.7
14:17 9.2 0.1 53 1005.1 16.8 NW 20.6 0.0 0.7
14:18 9.2 0.4 54 1005.0 15.9 NE 20.6 0.0 0.7
14:19 9.2 0.4 54 1004.9 15.2 SW 18.3 0.0 0.7
14:20 9.1 0.3 54 1005.0 15.2 SW 18.3 0.0 0.7
14:21 9.2 0.4 54 1005.1 15.9 NW 18.3 0.0 0.7
14:22 9.3 0.5 54 1005.1 9.2 W 16.8 0.0 0.7
14:23 9.2 0.6 55 1004.8 18.3 SW 18.3 0.0 0.7
14:24 9.2 0.4 54 1005.0 15.9 WNW 19.7 0.0 0.7
14:25 9.2 0.6 55 1004.8 17.4 WSW 19.7 0.0 0.7
14:26 9.2 0.6 55 1005.0 12.1 SW 19.7 0.0 0.7
14:28 9.2 0.4 54 1005.1 17.4 NW 19.7 0.0 0.7
14:29 9.2 0.4 54 1005.0 21.3 NW 21.3 0.0 0.7
14:30 9.2 0.4 54 1004.9 19.7 W 21.3 0.0 0.7
14:31 9.2 0.4 54 1004.9 15.2 E 21.3 0.0 0.7
14:32 9.2 0.4 54 1004.9 11.4 NW 21.3 0.0 0.7
14:33 9.2 0.4 54 1005.0 9.8 WSW 21.3 0.0 0.7
14:34 9.1 0.3 54 1004.9 15.2 SW 21.3 0.0 0.7
14:35 9.1 0.3 54 1004.9 15.9 SW 21.3 0.0 0.7
14:36 9.1 0.3 54 1005.0 13.6 SW 21.3 0.0 0.7
14:37 9.0 0.2 54 1005.0 13.0 W 21.3 0.0 0.7
14:38 9.1 0.5 55 1005.0 14.5 NW 21.3 0.0 0.7
14:39 9.1 0.5 55 1004.9 17.4 NW 21.3 0.0 0.7
14:40 9.1 0.5 55 1005.1 14.5 N 19.7 0.0 0.7
14:42 9.1 0.5 55 1005.0 12.1 WSW 17.4 0.0 0.7
14:43 9.1 0.5 55 1005.0 11.4 NW 17.4 0.0 0.7
14:44 9.0 0.4 55 1005.1 13.0 NW 17.4 0.0 0.7
14:45 9.0 0.4 55 1005.1 13.0 NW 17.4 0.0 0.7
14:46 9.1 0.5 55 1005.2 15.2 NW 17.4 0.0 0.7
14:47 9.0 0.4 55 1005.1 13.6 NW 17.4 0.0 0.7
14:48 9.1 0.5 55 1005.2 15.9 SW 17.4 0.0 0.7
14:49 9.0 0.4 55 1005.1 11.4 SW 17.4 0.0 0.7
14:50 9.0 0.7 56 1005.1 19.7 SW 19.7 0.0 0.7
14:51 9.0 0.7 56 1005.0 13.6 NW 19.7 0.0 0.7
14:52 9.0 0.7 56 1005.1 12.1 W 19.7 0.0 0.7
14:53 9.0 0.7 56 1005.1 21.3 SW 21.3 0.0 0.7
14:54 9.0 0.7 56 1004.9 19.7 W 21.3 0.0 0.7
14:55 8.9 0.8 57 1004.8 11.4 SW 21.3 0.0 0.7
14:57 8.9 0.8 57 1005.0 12.1 W 21.3 0.0 0.7
14:58 8.9 0.8 57 1004.9 15.2 W 21.3 0.0 0.7
14:59 8.9 0.8 57 1004.9 12.1 NW 21.3 0.0 0.7
15:00 8.9 0.8 57 1004.8 16.8 S 21.3 0.0 0.7
15:01 8.9 0.8 57 1004.9 16.8 S 21.3 0.0 0.7
15:02 8.8 0.8 57 1005.0 10.7 WNW 21.3 0.0 0.7
15:03 8.8 0.8 57 1004.9 13.0 WSW 21.3 0.0 0.7
15:04 8.8 0.8 57 1005.0 15.2 SW 19.7 0.0 0.7
15:05 8.8 0.8 57 1004.8 15.2 SW 16.8 0.0 0.7
15:06 8.9 1.1 58 1004.9 12.1 W 16.8 0.0 0.7
15:07 8.9 1.1 58 1004.9 12.1 SW 16.8 0.0 0.7
15:08 8.9 1.1 58 1005.0 12.1 SW 16.8 0.0 0.7
15:09 8.9 1.1 58 1005.1 10.7 W 16.8 0.0 0.7
15:10 8.9 1.1 58 1004.7 17.4 SW 17.4 0.0 0.7
15:11 8.9 1.1 58 1005.1 15.9 SW 17.4 0.0 0.7
15:12 8.8 1.0 58 1005.1 15.9 W 17.4 0.0 0.7
15:13 8.8 1.0 58 1005.1 14.5 W 17.4 0.0 0.7
15:14 8.8 1.0 58 1005.0 11.4 WSW 17.4 0.0 0.7
15:15 8.8 1.0 58 1005.0 12.1 WNW 17.4 0.0 0.7
15:16 8.9 1.3 59 1004.9 16.8 SW 17.4 0.0 0.7
15:17 8.9 1.3 59 1004.9 12.1 SW 17.4 0.0 0.7
15:19 8.9 1.1 58 1005.0 9.2 NW 18.3 0.0 0.7
15:20 8.9 1.1 58 1004.9 14.5 W 18.3 0.0 0.7
15:21 8.9 1.1 58 1004.9 20.6 SW 20.6 0.0 0.7
15:22 8.8 1.0 58 1005.0 17.4 NW 20.6 0.0 0.7
15:23 8.8 0.8 57 1004.8 15.2 NNW 20.6 0.0 0.7
15:24 8.8 0.8 57 1004.9 13.6 W 20.6 0.0 0.7
15:25 8.7 0.7 57 1004.9 19.0 NW 20.6 0.0 0.7
15:26 8.7 0.7 57 1005.1 19.0 SW 20.6 0.0 0.7
15:27 8.7 0.7 57 1005.0 16.8 SW 20.6 0.0 0.7
15:28 8.6 0.6 57 1005.1 13.6 NNW 20.6 0.0 0.7
15:29 8.6 0.6 57 1005.0 15.9 NW 20.6 0.0 0.7
15:30 8.6 0.6 57 1005.0 10.7 SW 20.6 0.0 0.7
15:31 8.6 0.6 57 1004.9 11.4 NNE 20.6 0.0 0.7
15:32 8.6 0.6 57 1005.0 15.9 NW 19.0 0.0 0.7
15:33 8.6 0.6 57 1005.0 15.2 W 19.0 0.0 0.7
15:35 8.5 0.5 57 1004.8 8.3 SW 19.0 0.0 0.7
15:36 8.5 0.5 57 1004.8 11.4 SW 19.0 0.0 0.7
15:37 8.5 0.5 57 1004.8 11.4 SW 16.8 0.0 0.7
15:38 8.5 0.7 58 1004.8 12.1 SW 15.9 0.0 0.7
15:39 8.4 0.6 58 1004.9 13.0 NW 15.9 0.0 0.7
15:40 8.4 0.6 58 1004.9 16.8 NE 16.8 0.0 0.7
15:41 8.4 0.6 58 1004.9 11.4 SW 16.8 0.0 0.7
15:42 8.4 0.6 58 1004.8 13.0 NW 16.8 0.0 0.7
15:43 8.4 0.6 58 1004.8 15.9 SW 16.8 0.0 0.7
15:44 8.4 0.6 58 1005.0 14.5 WSW 16.8 0.0 0.7
15:45 8.3 0.5 58 1005.0 12.1 NW 16.8 0.0 0.7
15:46 8.3 0.5 58 1004.9 7.6 SW 16.8 0.0 0.7
15:47 8.3 0.5 58 1005.0 13.0 W 16.8 0.0 0.7
15:49 8.2 0.4 58 1005.1 13.6 W 16.8 0.0 0.7
15:50 8.2 0.4 58 1005.0 12.1 SW 15.9 0.0 0.7
15:51 8.2 0.4 58 1005.2 13.6 WSW 15.9 0.0 0.7
15:52 8.2 0.4 58 1005.1 15.9 SW 15.9 0.0 0.7
15:53 8.2 0.4 58 1005.0 15.9 SW 15.9 0.0 0.7
15:54 8.2 0.4 58 1005.0 11.4 NW 15.9 0.0 0.7
15:55 8.2 0.4 58 1005.0 9.8 NW 15.9 0.0 0.7
15:56 8.1 0.3 58 1005.0 14.5 NW 15.9 0.0 0.7
15:57 8.1 0.3 58 1005.1 12.1 SW 15.9 0.0 0.7
15:58 8.1 0.3 58 1005.0 13.6 S 15.9 0.0 0.7
15:59 8.0 0.2 58 1005.0 9.8 N 15.9 0.0 0.7
16:01 8.0 0.2 58 1005.0 11.4 W 15.9 0.0 0.7
16:02 8.0 0.2 58 1005.0 15.9 W 15.9 0.0 0.7
16:03 8.0 0.5 59 1005.1 10.7 SE 15.9 0.0 0.7
16:04 8.0 0.5 59 1005.1 10.7 W 15.9 0.0 0.7
16:05 8.0 0.5 59 1005.1 13.0 SW 15.9 0.0 0.7
16:06 8.0 0.5 59 1005.2 9.2 WNW 15.9 0.0 0.7
16:07 8.0 0.5 59 1005.2 6.0 S 15.9 0.0 0.7
16:08 7.9 0.4 59 1005.2 9.8 S 15.9 0.0 0.7
16:10 7.9 0.4 59 1005.2 9.2 SW 15.9 0.0 0.7
16:11 7.9 0.4 59 1005.3 6.9 NW 15.9 0.0 0.7
16:12 7.9 0.4 59 1005.2 9.8 SW 15.9 0.0 0.7
16:13 7.9 0.4 59 1005.2 9.8 SW 15.9 0.0 0.7
16:14 7.9 0.4 59 1005.2 8.3 W 13.0 0.0 0.7
16:15 7.9 0.6 60 1005.2 9.2 NW 13.0 0.0 0.7
16:16 7.9 0.6 60 1005.2 14.5 NW 14.5 0.0 0.7
16:17 7.9 0.6 60 1005.2 9.2 WNW 14.5 0.0 0.7
16:18 7.9 0.6 60 1005.4 12.1 SW 14.5 0.0 0.7
16:19 7.9 0.6 60 1005.3 12.1 NNW 14.5 0.0 0.7
16:20 7.9 0.6 60 1005.3 5.4 WSW 14.5 0.0 0.7
16:21 7.9 0.6 60 1005.2 10.7 W 14.5 0.0 0.7
16:22 7.9 0.6 60 1005.3 7.6 SW 14.5 0.0 0.7
16:24 7.8 0.5 60 1005.1 6.9 NW 14.5 0.0 0.7
16:25 7.8 0.5 60 1005.2 7.6 NW 14.5 0.0 0.7
16:26 7.8 0.8 61 1005.3 9.2 SW 12.1 0.0 0.7
16:27 7.8 0.8 61 1005.2 6.9 W 12.1 0.0 0.7
16:28 7.8 0.8 61 1005.1 6.0 SW 12.1 0.0 0.7
16:29 7.8 0.8 61 1005.2 5.4 W 12.1 0.0 0.7
16:30 7.8 0.8 61 1005.2 9.2 S 10.7 0.0 0.7
16:31 7.8 0.8 61 1005.3 7.6 NE 10.7 0.0 0.7
16:32 7.8 0.8 61 1005.2 7.6 NE 9.8 0.0 0.7
16:33 7.8 0.8 61 1005.0 9.8 WSW 9.8 0.0 0.7
16:34 7.8 0.8 61 1005.1 6.0 NW 9.8 0.0 0.7
16:35 7.8 0.8 61 1005.2 7.6 S 9.8 0.0 0.7
16:36 7.8 1.0 62 1005.2 9.8 SW 9.8 0.0 0.7
16:37 7.8 1.0 62 1005.2 7.6 NW 9.8 0.0 0.7
16:39 7.8 1.0 62 1005.2 13.6 WSW 13.6 0.0 0.7
16:40 7.8 1.0 62 1005.1 10.7 NW 13.6 0.0 0.7
16:41 7.8 1.0 62 1005.3 9.8 SW 13.6 0.0 0.7
16:42 7.8 1.0 62 1005.0 11.4 SW 13.6 0.0 0.7
16:43 7.8 1.0 62 1005.1 9.8 NW 13.6 0.0 0.7
16:44 7.8 1.0 62 1005.2 8.3 NW 13.6 0.0 0.7
16:45 7.8 1.0 62 1005.1 8.3 NW 13.6 0.0 0.7
16:46 7.8 1.0 62 1005.2 9.8 NW 13.6 0.0 0.7
16:47 7.8 1.0 62 1005.2 11.4 N 13.6 0.0 0.7
16:48 7.8 1.0 62 1005.3 12.1 NW 13.6 0.0 0.7
16:49 7.8 1.0 62 1005.2 9.2 SW 13.6 0.0 0.7
16:50 7.9 1.1 62 1005.2 11.4 W 12.1 0.0 0.7
16:51 7.8 1.0 62 1005.3 11.4 NW 12.1 0.0 0.7
16:52 7.8 1.0 62 1005.3 8.3 NW 12.1 0.0 0.7
16:54 7.8 1.0 62 1005.4 10.7 W 12.1 0.0 0.7
16:55 7.8 1.0 62 1005.4 11.4 NW 12.1 0.0 0.7
16:56 7.8 1.0 62 1005.5 13.0 NW 13.0 0.0 0.7
16:57 7.8 1.0 62 1005.5 13.0 NW 13.0 0.0 0.7
16:58 7.8 1.0 62 1005.3 10.7 W 13.0 0.0 0.7
16:59 7.8 1.0 62 1005.4 9.8 W 13.0 0.0 0.7
17:00 7.9 1.1 62 1005.5 10.7 NW 13.0 0.0 0.7
17:01 7.9 1.1 62 1005.6 10.7 NW 13.0 0.0 0.7
17:02 7.9 1.1 62 1005.6 10.7 NW 13.0 0.0 0.7
17:03 7.9 1.1 62 1005.5 10.7 NW 13.0 0.0 0.7
17:04 7.9 1.1 62 1005.5 10.7 NW 13.0 0.0 0.7
17:05 7.9 1.1 62 1005.5 10.7 NW 13.0 0.0 0.7
17:06 7.9 1.1 62 1005.5 11.4 NW 13.0 0.0 0.7
17:07 7.9 1.1 62 1005.6 10.7 NW 12.1 0.0 0.7
17:08 7.9 1.1 62 1005.6 10.7 S 12.1 0.0 0.7
17:09 7.9 1.1 62 1005.5 8.3 SW 12.1 0.0 0.7
17:10 7.9 1.1 62 1005.6 7.6 SW 12.1 0.0 0.7
17:11 7.9 1.1 62 1005.6 9.2 W 12.1 0.0 0.7
17:12 7.9 1.1 62 1005.6 4.5 W 12.1 0.0 0.7
17:13 7.9 1.1 62 1005.5 9.2 W 12.1 0.0 0.7
17:14 7.9 1.1 62 1005.7 9.8 N 12.1 0.0 0.7
17:15 7.9 1.1 62 1005.6 9.8 S 12.1 0.0 0.7
17:16 7.9 1.3 63 1005.6 7.6 SW 11.4 0.0 0.7
17:18 7.9 1.3 63 1005.7 6.0 S 9.8 0.0 0.7
17:19 7.9 1.3 63 1005.6 8.3 W 15.2 0.0 0.7
17:20 7.9 1.3 63 1005.6 10.7 W 15.2 0.0 0.7
17:21 7.9 1.3 63 1005.6 10.7 W 15.2 0.0 0.7
17:22 7.9 1.3 63 1005.5 10.7 W 15.2 0.0 0.7
17:23 7.9 1.3 63 1005.6 6.9 NW 15.2 0.0 0.7
17:24 7.9 1.3 63 1005.7 5.4 NW 15.2 0.0 0.7
17:25 7.9 1.3 63 1005.8 13.6 NW 15.2 0.0 0.7
17:26 7.9 1.3 63 1005.7 9.2 N 15.2 0.0 0.7
17:27 8.0 1.4 63 1005.6 15.2 NW 15.2 0.0 0.7
17:28 8.0 1.4 63 1005.7 11.4 NW 15.2 0.0 0.7
17:29 8.1 1.5 63 1005.6 9.8 W 15.2 0.0 0.7
17:30 8.0 1.4 63 1005.7 12.1 W 15.2 0.0 0.7
17:31 8.0 1.4 63 1005.6 9.2 NW 15.2 0.0 0.7
17:33 8.0 1.4 63 1005.7 13.0 NW 15.2 0.0 0.7
17:34 8.0 1.4 63 1005.7 12.1 NW 15.2 0.0 0.7
17:35 8.0 1.2 62 1005.7 13.6 NW 15.2 0.0 0.7
17:36 8.0 1.2 62 1005.7 13.6 NW 15.2 0.0 0.7
17:37 8.0 1.2 62 1005.8 13.0 SW 15.2 0.0 0.7
17:38 8.0 1.2 62 1005.7 15.2 NW 15.2 0.0 0.7
17:39 8.0 1.2 62 1005.7 8.3 NW 15.2 0.0 0.7
17:40 8.0 1.2 62 1005.7 7.6 SW 15.2 0.0 0.7
17:41 8.0 1.2 62 1005.8 12.1 NW 15.2 0.0 0.7
17:42 8.0 1.2 62 1005.9 11.4 NW 15.2 0.0 0.7
17:43 8.0 1.2 62 1005.8 14.5 NW 15.2 0.0 0.7
17:44 8.0 1.2 62 1005.8 14.5 S 15.2 0.0 0.7
17:45 8.0 1.2 62 1005.7 8.3 WSW 15.2 0.0 0.7
17:46 8.0 1.2 62 1005.8 8.3 W 15.2 0.0 0.7
17:47 8.0 1.2 62 1005.7 10.7 N 15.2 0.0 0.7
17:48 8.0 1.2 62 1005.7 10.7 SW 14.5 0.0 0.7
17:49 8.0 1.2 62 1005.9 13.0 NW 14.5 0.0 0.7
17:51 8.0 1.2 62 1005.6 15.2 SW 15.2 0.0 0.7
17:52 8.0 1.2 62 1005.5 8.3 SW 15.2 0.0 0.7
17:53 8.0 1.2 62 1005.5 8.3 SW 15.2 0.0 0.7
17:54 8.0 1.2 62 1005.7 8.3 SW 15.2 0.0 0.7
17:55 8.0 1.2 62 1005.6 8.3 W 15.2 0.0 0.7
17:56 8.0 1.2 62 1005.6 11.4 W 15.2 0.0 0.7
17:57 8.0 1.2 62 1005.5 10.7 NW 15.2 0.0 0.7
17:58 8.0 1.2 62 1005.7 11.4 NW 15.2 0.0 0.7
17:59 8.0 1.2 62 1005.7 10.7 NW 15.2 0.0 0.7
18:00 8.0 1.2 62 1005.6 10.7 NW 15.2 0.0 0.7
18:01 8.0 1.2 62 1005.6 10.7 NW 15.2 0.0 0.7
18:02 8.0 1.2 62 1005.5 10.7 NW 11.4 0.0 0.7
18:03 8.0 1.2 62 1005.5 10.7 NW 11.4 0.0 0.7
18:04 8.0 1.2 62 1005.5 10.7 NW 11.4 0.0 0.7
18:05 8.0 1.2 62 1005.7 7.6 NW 11.4 0.0 0.7
18:06 8.0 1.2 62 1005.7 9.2 W 11.4 0.0 0.7
18:08 8.0 1.2 62 1005.5 8.3 SE 11.4 0.0 0.7
18:09 8.0 1.2 62 1005.5 6.9 SE 11.4 0.0 0.7
18:10 8.0 1.2 62 1005.5 10.7 NW 11.4 0.0 0.7
18:11 8.0 1.2 62 1005.5 13.6 NW 13.6 0.0 0.7
18:12 8.0 1.2 62 1005.7 12.1 W 13.6 0.0 0.7
18:13 8.0 1.2 62 1005.6 12.1 NW 13.6 0.0 0.7
18:14 8.0 1.2 62 1005.6 13.6 N 13.6 0.0 0.7
18:15 8.0 1.2 62 1005.6 12.1 NW 13.6 0.0 0.7
18:16 8.0 1.2 62 1005.5 6.9 S 13.6 0.0 0.7
18:17 8.0 1.2 62 1005.7 14.5 NW 14.5 0.0 0.7
18:18 8.0 1.2 62 1005.7 9.8 NW 14.5 0.0 0.7
18:19 8.0 1.2 62 1005.7 9.8 W 14.5 0.0 0.7
18:20 8.0 1.2 62 1005.7 9.8 W 14.5 0.0 0.7
18:21 8.0 1.2 62 1005.8 9.2 NW 14.5 0.0 0.7
18:22 8.0 1.4 63 1005.8 6.9 SW 14.5 0.0 0.7
18:23 8.0 1.4 63 1005.8 7.6 W 14.5 0.0 0.7
18:24 8.0 1.2 62 1005.8 7.6 NW 14.5 0.0 0.7
18:25 8.0 1.4 63 1005.7 9.2 SW 14.5 0.0 0.7
18:27 8.0 1.4 63 1005.7 7.6 NW 11.4 0.0 0.7
18:28 8.0 1.4 63 1005.9 6.9 W 11.4 0.0 0.7
18:29 8.0 1.4 63 1005.9 6.9 W 11.4 0.0 0.7
18:30 8.0 1.4 63 1005.9 7.6 NW 11.4 0.0 0.7
18:31 8.0 1.4 63 1005.9 7.6 SW 11.4 0.0 0.7
18:32 8.0 1.4 63 1005.9 6.9 W 11.4 0.0 0.7
18:33 8.0 1.4 63 1006.0 5.4 NNW 11.4 0.0 0.7
18:34 8.0 1.4 63 1006.0 6.9 W 11.4 0.0 0.7
18:35 8.0 1.4 63 1005.9 7.6 NW 9.8 0.0 0.7
18:36 8.0 1.4 63 1005.8 7.6 NW 9.8 0.0 0.7
18:37 8.0 1.4 63 1005.8 9.2 SW 9.2 0.0 0.7
18:38 8.0 1.4 63 1005.9 8.3 NW 9.2 0.0 0.7
18:39 8.0 1.4 63 1005.7 11.4 NW 11.4 0.0 0.7
18:40 8.0 1.4 63 1005.8 11.4 NW 11.4 0.0 0.7
18:41 8.0 1.4 63 1005.7 10.7 NW 11.4 0.0 0.7
18:42 8.0 1.4 63 1005.8 8.3 SW 11.4 0.0 0.7
18:43 8.0 1.4 63 1005.9 8.3 SE 11.4 0.0 0.7
18:45 8.0 1.4 63 1005.8 9.8 NW 11.4 0.0 0.7
18:46 8.0 1.4 63 1005.8 8.3 W 11.4 0.0 0.7
18:47 8.0 1.4 63 1005.7 9.8 NW 11.4 0.0 0.7
18:48 8.0 1.4 63 1005.8 9.2 W 11.4 0.0 0.7
18:49 8.0 1.4 63 1005.9 12.1 N 12.1 0.0 0.7
18:50 8.0 1.4 63 1005.7 10.7 NW 12.1 0.0 0.7
18:51 8.0 1.4 63 1005.7 13.0 W 13.0 0.0 0.7
18:52 8.0 1.2 62 1005.8 7.6 W 13.0 0.0 0.7
18:53 8.0 1.2 62 1005.8 7.6 NW 13.0 0.0 0.7
18:54 8.0 1.4 63 1005.7 11.4 NW 13.0 0.0 0.7
18:55 8.0 1.2 62 1005.8 9.8 NW 13.0 0.0 0.7
18:56 8.1 1.3 62 1005.7 9.8 NW 13.0 0.0 0.7
18:57 8.1 1.3 62 1005.8 6.0 W 13.0 0.0 0.7
18:58 8.0 1.2 62 1005.7 5.4 W 13.0 0.0 0.7
18:59 8.0 1.2 62 1005.8 4.5 WNW 13.0 0.0 0.7
19:00 8.0 1.2 62 1005.9 6.0 SW 13.0 0.0 0.7
19:01 8.0 1.2 62 1005.9 6.0 SW 11.4 0.0 0.7
19:02 8.0 1.2 62 1005.7 6.0 SW 11.4 0.0 0.7
19:04 8.0 1.2 62 1005.8 6.0 SW 9.8 0.0 0.7
19:05 8.0 1.2 62 1005.8 6.0 W 9.8 0.0 0.7
19:06 8.0 1.2 62 1005.8 3.8 W 6.0 0.0 0.7
19:07 8.0 1.2 62 1005.9 6.0 SW 6.0 0.0 0.7
19:08 8.0 1.4 63 1005.9 9.8 W 9.8 0.0 0.7
19:09 8.0 1.2 62 1006.0 8.3 NW 9.8 0.0 0.7
19:10 8.0 1.4 63 1005.9 6.9 W 9.8 0.0 0.7
19:11 8.0 1.4 63 1005.9 7.6 W 9.8 0.0 0.7
19:12 8.0 1.2 62 1006.0 8.3 N 9.8 0.0 0.7
19:13 8.0 1.4 63 1006.0 3.8 SW 9.8 0.0 0.7
19:14 8.0 1.2 62 1005.9 8.3 NW 9.8 0.0 0.7
19:15 8.0 1.4 63 1006.0 9.2 WNW 9.8 0.0 0.7
19:17 8.0 1.4 63 1005.9 9.2 W 9.8 0.0 0.7
19:18 8.0 1.2 62 1005.9 4.5 NW 9.8 0.0 0.7
19:19 8.0 1.4 63 1005.9 6.9 SW 9.2 0.0 0.7
19:20 8.0 1.4 63 1005.8 6.9 SW 9.2 0.0 0.7
19:21 8.0 1.2 62 1005.8 6.0 NW 9.2 0.0 0.7
19:22 8.0 1.4 63 1005.9 7.6 SW 9.2 0.0 0.7
19:23 8.0 1.4 63 1006.0 6.9 NW 9.2 0.0 0.7
19:24 8.0 1.4 63 1005.9 9.8 W 9.8 0.0 0.7
19:25 8.0 1.4 63 1006.1 10.7 N 10.7 0.0 0.7
19:26 8.0 1.4 63 1006.0 8.3 N 10.7 0.0 0.7
19:27 8.0 1.4 63 1006.0 9.8 NW 10.7 0.0 0.7
19:28 8.0 1.4 63 1006.0 6.0 W 10.7 0.0 0.7
19:29 8.0 1.4 63 1006.0 9.2 SW 10.7 0.0 0.7
19:30 8.0 1.4 63 1005.9 6.9 SW 10.7 0.0 0.7
19:31 8.0 1.4 63 1005.8 7.6 SW 10.7 0.0 0.7
19:32 8.0 1.4 63 1006.0 6.0 WSW 10.7 0.0 0.7
19:33 8.0 1.4 63 1005.9 8.3 NW 10.7 0.0 0.7
19:34 8.0 1.4 63 1006.0 8.3 SW 10.7 0.0 0.7
19:36 8.0 1.4 63 1005.9 7.6 NW 9.8 0.0 0.7
19:37 8.0 1.4 63 1006.0 5.4 S 9.8 0.0 0.7
19:38 8.0 1.4 63 1006.0 6.9 N 9.8 0.0 0.7
19:39 8.0 1.4 63 1006.1 11.4 NW 11.4 0.0 0.7
19:40 8.0 1.4 63 1005.9 7.6 SW 11.4 0.0 0.7
19:41 8.0 1.4 63 1006.0 12.1 NW 12.1 0.0 0.7
19:42 8.0 1.4 63 1006.0 11.4 NW 12.1 0.0 0.7
19:43 8.0 1.4 63 1006.2 9.8 NE 12.1 0.0 0.7
19:44 8.0 1.4 63 1006.0 7.6 N 12.1 0.0 0.7
19:45 8.0 1.4 63 1006.1 8.3 NW 12.1 0.0 0.7
19:46 8.0 1.4 63 1006.2 7.6 W 12.1 0.0 0.7
19:47 8.0 1.4 63 1006.0 9.2 W 12.1 0.0 0.7
19:48 8.1 1.5 63 1006.1 8.3 W 12.1 0.0 0.7
19:49 8.1 1.5 63 1006.1 11.4 SW 12.1 0.0 0.7
19:50 8.1 1.5 63 1006.2 6.9 NW 12.1 0.0 0.7
19:51 8.1 1.5 63 1006.1 7.6 W 11.4 0.0 0.7
19:52 8.1 1.5 63 1006.2 6.9 N 11.4 0.0 0.7
19:54 8.1 1.5 63 1006.2 5.4 NNE 11.4 0.0 0.7
19:55 8.1 1.5 63 1006.2 5.4 NNE 11.4 0.0 0.7
19:56 8.1 1.5 63 1006.2 6.9 NW 11.4 0.0 0.7
19:57 8.1 1.5 63 1006.2 5.4 NW 11.4 0.0 0.7
19:58 8.1 1.5 63 1006.2 4.5 W 11.4 0.0 0.7
19:59 8.1 1.5 63 1006.1 8.3 SW 11.4 0.0 0.7
20:00 8.1 1.5 63 1006.2 7.6 NW 8.3 0.0 0.7
20:01 8.1 1.5 63 1006.1 7.6 NW 8.3 0.0 0.7
20:02 8.1 1.5 63 1006.2 7.6 NW 8.3 0.0 0.7
20:03 8.1 1.5 63 1006.2 7.6 NW 8.3 0.0 0.7
20:04 8.1 1.5 63 1006.2 7.6 NW 8.3 0.0 0.7
20:05 8.1 1.5 63 1006.1 7.6 NW 8.3 0.0 0.7
20:06 8.0 1.4 63 1006.2 9.8 W 9.8 0.0 0.7
20:07 8.1 1.5 63 1005.9 9.8 NW 9.8 0.0 0.7
20:08 8.1 1.5 63 1006.0 7.6 NE 9.8 0.0 0.7
20:09 8.0 1.4 63 1006.1 9.2 W 9.8 0.0 0.7
20:10 8.0 1.4 63 1006.2 6.9 N 9.8 0.0 0.7
20:12 8.0 1.4 63 1006.0 9.8 SW 9.8 0.0 0.7
20:13 8.0 1.4 63 1006.2 9.8 W 9.8 0.0 0.7
20:14 8.0 1.4 63 1006.0 6.9 NW 9.8 0.0 0.7
20:15 8.0 1.4 63 1006.1 8.3 NW 9.8 0.0 0.7
20:16 8.0 1.4 63 1006.2 7.6 W 9.8 0.0 0.7
20:17 8.0 1.6 64 1006.1 6.9 SW 9.8 0.0 0.7
20:18 8.0 1.4 63 1006.1 6.9 W 9.8 0.0 0.7
20:19 8.0 1.6 64 1006.1 6.0 NE 9.8 0.0 0.7
20:20 8.0 1.4 63 1006.0 6.9 NW 9.8 0.0 0.7
20:21 8.0 1.6 64 1006.1 6.9 SW 9.8 0.0 0.7
20:22 8.0 1.4 63 1006.0 10.7 NW 10.7 0.0 0.7
20:23 8.0 1.4 63 1006.1 8.3 W 10.7 0.0 0.7
20:24 8.0 1.4 63 1006.1 10.7 NW 10.7 0.0 0.7
20:25 8.0 1.4 63 1005.9 9.2 W 10.7 0.0 0.7
20:26 8.0 1.4 63 1006.2 7.6 SW 10.7 0.0 0.7
20:27 8.0 1.4 63 1006.0 6.9 NW 10.7 0.0 0.7
20:29 8.0 1.4 63 1005.9 7.6 W 10.7 0.0 0.7
20:30 8.0 1.6 64 1006.0 10.7 NW 10.7 0.0 0.7
20:31 8.0 1.6 64 1006.2 5.4 NW 10.7 0.0 0.7
20:32 8.0 1.6 64 1006.1 6.9 NW 10.7 0.0 0.7
20:33 8.0 1.6 64 1006.2 5.4 W 10.7 0.0 0.7
20:34 8.0 1.6 64 1006.0 6.0 W 10.7 0.0 0.7
20:35 8.0 1.6 64 1006.2 5.4 NW 10.7 0.0 0.7
20:36 8.0 1.6 64 1006.2 6.0 W 10.7 0.0 0.7
20:37 8.0 1.6 64 1006.2 5.4 N 10.7 0.0 0.7
20:38 8.0 1.6 64 1006.2 7.6 WSW 10.7 0.0 0.7
20:39 8.0 1.6 64 1006.3 5.4 NW 10.7 0.0 0.7
20:40 8.0 1.6 64 1006.3 5.4 SW 10.7 0.0 0.7
20:41 8.0 1.6 64 1006.2 4.5 W 9.2 0.0 0.7
20:42 8.0 1.6 64 1006.2 6.0 NW 9.2 0.0 0.7
20:43 8.0 1.6 64 1006.2 8.3 NW 9.2 0.0 0.7
20:44 8.0 1.6 64 1006.3 6.9 NW 9.2 0.0 0.7
20:45 8.0 1.6 64 1006.2 9.2 W 9.2 0.0 0.7
20:47 8.0 1.6 64 1006.3 4.5 W 9.2 0.0 0.7
20:48 7.9 1.5 64 1006.2 7.6 WNW 9.2 0.0 0.7
20:49 7.9 1.5 64 1006.1 3.8 W 9.2 0.0 0.7
20:50 7.9 1.5 64 1006.1 4.5 W 9.2 0.0 0.7
20:51 7.9 1.5 64 1006.2 8.3 W 9.2 0.0 0.7
20:52 7.9 1.3 63 1006.2 9.2 NW 9.2 0.0 0.7
20:53 7.9 1.3 63 1006.1 8.3 W 9.2 0.0 0.7
20:54 7.9 1.3 63 1006.2 7.6 NW 9.2 0.0 0.7
20:55 7.9 1.3 63 1006.2 9.2 WSW 9.2 0.0 0.7
20:56 7.9 1.3 63 1006.2 8.3 NW 9.2 0.0 0.7
20:57 7.9 1.3 63 1006.2 8.3 SW 9.2 0.0 0.7
20:58 7.9 1.3 63 1006.3 3.8 NW 10.7 0.0 0.7
20:59 7.9 1.3 63 1006.2 6.9 W 10.7 0.0 0.7
21:00 7.9 1.3 63 1006.2 9.8 W 10.7 0.0 0.7
21:01 7.9 1.3 63 1006.2 9.8 W 10.7 0.0 0.7
21:02 7.9 1.3 63 1006.3 9.8 W 10.7 0.0 0.7
21:03 7.9 1.3 63 1006.2 9.8 W 10.7 0.0 0.7
21:04 7.9 1.3 63 1006.4 9.8 W 10.7 0.0 0.7
21:05 7.9 1.3 63 1006.3 5.4 W 10.7 0.0 0.7
21:06 7.9 1.3 63 1006.3 7.6 NW 10.7 0.0 0.7
21:07 7.9 1.3 63 1006.4 6.9 NW 10.7 0.0 0.7
21:09 7.9 1.3 63 1006.3 5.4 NW 9.8 0.0 0.7
21:10 7.9 1.3 63 1006.4 9.8 SW 9.8 0.0 0.7
21:11 7.9 1.3 63 1006.3 6.0 W 9.8 0.0 0.7
21:12 7.9 1.3 63 1006.5 7.6 NE 9.8 0.0 0.7
21:13 7.9 1.3 63 1006.4 6.0 SW 9.8 0.0 0.7
21:14 7.9 1.3 63 1006.4 6.9 SW 9.8 0.0 0.7
21:15 7.9 1.3 63 1006.4 6.9 NW 9.8 0.0 0.7
21:16 7.9 1.3 63 1006.5 7.6 NW 9.8 0.0 0.7
21:17 7.9 1.3 63 1006.5 8.3 W 9.8 0.0 0.7
21:18 7.9 1.3 63 1006.5 6.0 NW 9.8 0.0 0.7
21:19 7.9 1.3 63 1006.5 6.9 W 9.8 0.0 0.7
21:20 7.9 1.3 63 1006.6 8.3 SW 9.8 0.0 0.7
21:21 7.9 1.3 63 1006.6 7.6 W 9.8 0.0 0.7
21:22 7.9 1.3 63 1006.4 5.4 W 9.8 0.0 0.7
21:23 7.9 1.3 63 1006.4 6.0 W 9.8 0.0 0.7
21:25 7.9 1.3 63 1006.4 6.9 NW 9.8 0.0 0.7
21:26 7.9 1.3 63 1006.5 6.9 W 9.8 0.0 0.7
21:27 7.9 1.3 63 1006.5 9.8 W 9.8 0.0 0.7
21:28 7.8 1.4 64 1006.6 8.3 NW 9.8 0.0 0.7
21:29 7.8 1.4 64 1006.7 8.3 WSW 9.8 0.0 0.7
21:30 7.8 1.4 64 1006.6 10.7 SW 11.4 0.0 0.7
21:31 7.8 1.4 64 1006.5 8.3 NW 11.4 0.0 0.7
21:32 7.8 1.4 64 1006.6 7.6 W 11.4 0.0 0.7
21:33 7.8 1.4 64 1006.6 9.2 NW 11.4 0.0 0.7
21:34 7.8 1.4 64 1006.6 9.2 WSW 11.4 0.0 0.7
21:35 7.8 1.4 64 1006.6 7.6 NW 11.4 0.0 0.7
21:36 7.8 1.4 64 1006.7 6.9 W 11.4 0.0 0.7
21:37 7.8 1.4 64 1006.5 6.0 W 11.4 0.0 0.7
21:38 7.8 1.2 63 1006.5 8.3 NW 11.4 0.0 0.7
21:39 7.7 1.3 64 1006.5 6.0 NW 11.4 0.0 0.7
21:40 7.7 1.1 63 1006.5 5.4 W 9.2 0.0 0.7
21:41 7.7 1.1 63 1006.5 8.3 E 9.2 0.0 0.7
21:42 7.7 1.1 63 1006.6 6.9 NW 9.2 0.0 0.7
21:43 7.7 1.1 63 1006.5 6.9 W 9.2 0.0 0.7
21:44 7.7 1.3 64 1006.6 10.7 NW 10.7 0.0 0.7
21:46 7.7 1.1 63 1006.6 7.6 NW 10.7 0.0 0.7
21:47 7.7 1.3 64 1006.6 7.6 NW 10.7 0.0 0.7
21:48 7.7 1.3 64 1006.6 7.6 W 10.7 0.0 0.7
21:49 7.7 1.3 64 1006.6 7.6 W 10.7 0.0 0.7
21:50 7.7 1.3 64 1006.7 6.0 SW 10.7 0.0 0.7
21:51 7.7 1.3 64 1006.6 6.0 WNW 10.7 0.0 0.7
21:52 7.6 1.2 64 1006.5 6.9 NW 10.7 0.0 0.7
21:53 7.6 1.2 64 1006.7 5.4 NW 10.7 0.0 0.7
21:54 7.6 1.2 64 1006.5 6.9 SW 10.7 0.0 0.7
21:55 7.6 1.2 64 1006.6 8.3 NW 9.2 0.0 0.7
21:56 7.6 1.2 64 1006.6 8.3 W 8.3 0.0 0.7
22:00 7.6 1.2 64 1006.6 13.0 W 13.0 0.0 0.7
22:01 7.6 1.2 64 1006.8 13.0 W 13.0 0.0 0.7
22:02 7.6 1.2 64 1006.7 13.0 W 13.0 0.0 0.7
22:03 7.6 1.2 64 1006.7 13.0 W 13.0 0.0 0.7
22:04 7.6 1.2 64 1006.7 13.0 W 13.0 0.0 0.7
22:05 7.6 1.2 64 1006.8 13.0 W 13.0 0.0 0.7
22:06 7.5 1.1 64 1006.8 9.2 NW 13.0 0.0 0.7
22:07 7.5 1.1 64 1006.8 6.9 W 13.0 0.0 0.7
22:08 7.5 1.1 64 1006.7 12.1 NW 13.0 0.0 0.7
22:09 7.5 1.1 64 1006.7 8.3 S 13.0 0.0 0.7
22:10 7.5 1.1 64 1006.7 9.8 SW 13.0 0.0 0.7
22:11 7.5 1.1 64 1006.7 6.0 NW 13.0 0.0 0.7
22:12 7.5 1.1 64 1006.7 11.4 NW 13.0 0.0 0.7
22:13 7.4 1.0 64 1006.8 9.2 NW 13.0 0.0 0.7
22:14 7.4 1.0 64 1006.7 9.2 NW 13.0 0.0 0.7
22:16 7.4 1.3 65 1006.7 13.0 NNE 15.9 0.0 0.7
22:17 7.4 1.3 65 1006.7 13.0 NNE 15.9 0.0 0.7
22:18 7.4 1.3 65 1006.8 10.7 W 15.9 0.0 0.7
22:19 7.3 1.2 65 1006.8 9.2 N 15.9 0.0 0.7
22:20 7.3 1.2 65 1006.7 6.9 SW 15.9 0.8 0.8
22:21 7.3 1.2 65 1006.8 7.6 NW 15.9 0.8 0.8
22:22 7.2 1.3 66 1006.7 7.6 SW 15.9 0.8 0.8
22:23 7.2 1.3 66 1006.7 7.6 SW 15.9 0.8 0.8
22:24 7.2 1.3 66 1006.8 5.4 NW 15.9 0.8 0.8
22:25 7.2 1.3 66 1006.7 7.6 SW 15.9 0.0 0.8
22:26 7.2 1.3 66 1006.7 6.0 SW 15.9 0.0 0.8
22:27 7.2 1.3 66 1006.8 6.0 W 12.1 0.8 0.8
22:28 7.1 1.4 67 1006.7 5.4 W 9.2 0.8 0.8
22:29 7.1 1.4 67 1006.8 11.4 W 11.4 0.8 0.8
22:30 7.1 1.4 67 1006.7 6.9 NW 11.4 0.8 0.8
22:31 7.1 1.4 67 1006.8 11.4 N 11.4 0.8 0.8
22:32 7.2 1.5 67 1006.7 11.4 W 11.4 0.0 0.8
22:33 7.1 1.6 68 1006.6 8.3 SW 11.4 0.0 0.8
22:35 7.1 1.6 68 1006.7 11.4 SW 13.0 0.0 0.8
22:36 7.1 1.6 68 1006.5 13.0 S 13.0 0.0 0.8
22:37 7.1 1.6 68 1006.7 9.8 W 13.0 0.0 0.8
22:38 7.1 1.6 68 1006.6 12.1 S 13.0 0.0 0.8
22:39 7.1 1.6 68 1006.7 13.0 SW 13.0 0.0 0.8
22:40 7.1 1.6 68 1006.7 9.2 NW 13.0 0.0 0.8
22:41 7.1 1.6 68 1006.7 6.0 W 13.0 0.0 0.8
22:42 7.0 1.5 68 1006.9 15.2 SW 15.2 0.0 0.8
22:43 7.0 1.5 68 1006.9 15.2 SW 15.2 0.0 0.8
22:44 7.0 1.5 68 1006.8 7.6 NW 15.2 0.0 0.8
22:45 7.0 1.5 68 1006.8 8.3 NNW 15.2 0.0 0.8
22:46 7.0 1.5 68 1006.7 6.0 NW 15.2 0.0 0.8
22:47 7.0 1.5 68 1006.7 8.3 W 15.2 0.0 0.8
22:48 7.0 1.5 68 1006.6 9.8 NW 15.2 0.8 0.9
22:49 7.0 1.5 68 1006.7 7.6 NW 15.2 0.8 0.9
22:50 7.0 1.5 68 1006.8 6.0 WSW 15.2 0.8 0.9
22:51 7.0 1.5 68 1006.6 7.6 WSW 15.2 0.8 0.9
22:53 6.9 1.6 69 1006.6 6.9 W 9.8 0.0 0.9
22:54 6.9 1.4 68 1006.7 8.3 W 9.8 0.0 0.9
22:55 6.9 1.4 68 1006.6 7.6 NW 9.8 0.0 0.9
22:56 6.9 1.4 68 1006.7 6.0 W 9.8 0.0 0.9
22:57 6.9 1.4 68 1006.6 6.9 NW 9.8 0.0 0.9
22:58 6.9 1.4 68 1006.7 7.6 NW 9.8 0.0 0.9
22:59 6.9 1.6 69 1006.6 4.5 NW 9.8 0.0 0.9
23:00 6.9 1.4 68 1006.6 6.9 NW 9.8 0.0 0.9
23:01 6.9 1.4 68 1006.6 6.9 NW 9.8 0.0 0.9
23:02 6.9 1.4 68 1006.7 6.9 NW 9.8 0.0 0.9
23:03 6.9 1.4 68 1006.7 6.9 NW 9.8 0.0 0.9
23:04 6.9 1.4 68 1006.6 6.9 NW 8.3 0.0 0.9
23:05 6.9 1.4 68 1006.5 6.9 NW 7.6 0.0 0.9
23:06 6.8 1.3 68 1006.6 6.9 W 7.6 0.0 0.9
23:07 6.7 1.2 68 1006.6 6.9 NW 7.6 0.0 0.9
23:08 6.7 1.2 68 1006.5 4.5 W 7.6 0.0 0.9
23:09 6.7 1.2 68 1006.5 6.0 W 7.6 0.0 0.9
23:10 6.7 1.2 68 1006.6 4.5 W 7.6 0.0 0.9
23:12 6.6 1.1 68 1006.5 4.5 W 7.6 0.0 0.9
23:13 6.6 1.1 68 1006.5 4.5 W 7.6 0.0 0.9
23:14 6.6 1.1 68 1006.4 3.1 NW 7.6 0.0 0.9
23:15 6.6 1.1 68 1006.5 4.5 W 7.6 0.0 0.9
23:16 6.6 1.1 68 1006.4 6.0 NW 7.6 0.0 0.9
23:17 6.6 1.1 68 1006.4 5.4 WNW 7.6 0.0 0.9
23:18 6.6 1.1 68 1006.5 5.4 W 7.6 0.0 0.9
23:19 6.5 1.0 68 1006.6 4.5 W 6.0 0.0 0.9
23:20 6.5 1.0 68 1006.5 4.5 NW 6.0 0.0 0.9
23:21 6.5 1.0 68 1006.6 4.5 N 6.0 0.0 0.9
23:22 6.5 1.0 68 1006.6 6.0 NW 6.0 0.0 0.9
23:23 6.5 1.0 68 1006.5 6.0 W 6.0 0.0 0.9
23:24 6.4 0.9 68 1006.5 5.4 W 6.0 0.0 0.9
23:25 6.4 0.9 68 1006.4 3.8 W 6.0 0.0 0.9
23:26 6.4 0.9 68 1006.4 4.5 W 6.0 0.0 0.9
23:27 6.4 0.9 68 1006.5 3.8 W 6.0 0.0 0.9
23:28 6.4 0.9 68 1006.6 4.5 NW 6.9 0.0 0.9
23:30 6.4 0.9 68 1006.5 5.4 W 6.9 0.0 0.9
23:31 6.4 0.9 68 1006.6 5.4 W 6.9 0.0 0.9
23:32 6.4 0.9 68 1006.5 5.4 N 6.9 0.0 0.9
23:33 6.4 0.9 68 1006.7 4.5 NW 6.9 0.0 0.9
23:34 6.4 0.9 68 1006.6 6.9 W 8.3 0.0 0.9
23:35 6.4 0.9 68 1006.7 4.5 SW 8.3 0.0 0.9
23:36 6.4 0.9 68 1006.6 5.4 NW 8.3 0.0 0.9
23:37 6.5 1.0 68 1006.6 5.4 W 8.3 0.0 0.9
23:38 6.5 1.0 68 1006.6 4.5 W 8.3 0.0 0.9
23:39 6.5 1.0 68 1006.6 3.1 NW 8.3 0.0 0.9
23:40 6.5 1.0 68 1006.5 5.4 N 8.3 0.0 0.9
23:41 6.5 1.0 68 1006.5 6.0 WNW 8.3 0.0 0.9
23:42 6.5 1.0 68 1006.6 6.0 W 8.3 0.0 0.9
23:43 6.5 1.0 68 1006.5 4.5 NW 8.3 0.0 0.9
23:44 6.5 1.0 68 1006.5 3.8 N 6.9 0.0 0.9
23:45 6.5 1.0 68 1006.4 4.5 W 6.9 0.0 0.9
23:46 6.5 1.0 68 1006.5 6.0 W 6.9 0.0 0.9
23:47 6.5 1.0 68 1006.6 4.5 NW 6.9 0.0 0.9
23:49 6.5 1.0 68 1006.5 3.8 NW 6.9 0.0 0.9
23:50 6.5 1.0 68 1006.5 3.8 SW 6.9 0.0 0.9
23:51 6.5 1.0 68 1006.5 3.8 NW 6.0 0.0 0.9
23:52 6.5 1.0 68 1006.5 4.5 NW 6.0 0.0 0.9
23:53 6.5 1.0 68 1006.5 5.4 W 6.0 0.0 0.9
23:54 6.5 1.0 68 1006.6 3.8 NW 6.0 0.0 0.9
23:55 6.5 1.0 68 1006.6 5.4 S 6.0 0.0 0.9
23:56 6.4 0.9 68 1006.6 4.5 SW 6.0 0.0 0.9
23:57 6.4 0.9 68 1006.6 3.1 W 6.0 0.0 0.9
23:58 6.4 0.9 68 1006.5 3.8 W 6.0 0.0 0.9
23:59 6.4 0.9 68 1006.4 4.5 W 5.4 0.0 0.9

 

 

UK - WEATHER STATION TOPSITES - UK World Weather Websites

Copyright © Carnkie Weather 2009 - 2019.